M I D A S
Marine Information and Data Acquisition System
Tripno 2082 of the Zeeleeuw from 2011-04-21 11:06:20 to 2011-04-21 15:38:22
Back to CruiseResearch ActivitiesStationsMapUnderway DataData graphs

EquipmentUnitsComment
TimeDGPSUTC
LatitudeDGPSDM.mWGS84
LongitudeDGPSDM.mWGS84
TemperatureSBE03/SBE38deg celciusITS90
ConductivitySBE21S/mITS90
SalinitySBE21 Practical Salinity Units
ChlorophylAChelsea fluorimeterg/lCalibrated in Aceton
Missing or incorrect values are displayed as -999
Sea surface data collected by the RV Zeeleeuw from 2011-04-21 07:36:17 to 2011-04-21 15:43:30
                                                                                    Next 1000 lines
Time Latitude Longitude Temperature Conductivity Salinity ChlorophylA
2011-04-21 07:36:27 51°13.663 2°55.957 18.0919 0.007858 0.045184 -3.020363
2011-04-21 07:36:32 51°13.663 2°55.956 18.1234 0.007858 0.045184 -3.020363
2011-04-21 07:36:37 51°13.664 2°55.953 18.1582 0.007858 0.045184 -3.020363
2011-04-21 07:36:42 51°13.665 2°55.951 18.1859 0.007858 0.045184 -3.020363
2011-04-21 07:36:47 51°13.665 2°55.947 18.1837 0.007858 0.045184 -3.020363
2011-04-21 07:36:52 51°13.667 2°55.944 18.1941 0.007858 0.045184 -3.020363
2011-04-21 07:36:58 51°13.668 2°55.939 18.1968 0.007858 0.045184 -3.020363
2011-04-21 07:37:04 51°13.67 2°55.934 18.2022 0.007858 0.045184 -3.020363
2011-04-21 07:37:09 51°13.671 2°55.929 18.2107 0.007858 0.045184 -3.020363
2011-04-21 07:37:15 51°13.673 2°55.923 18.2054 0.007858 0.045184 -3.020363
2011-04-21 07:37:20 51°13.674 2°55.917 18.2056 0.007858 0.045185 -3.020363
2011-04-21 07:37:25 51°13.676 2°55.911 18.2148 0.007858 0.045185 -3.020363
2011-04-21 07:37:30 51°13.678 2°55.905 18.2146 0.007858 0.045184 -3.020363
2011-04-21 07:37:35 51°13.68 2°55.898 18.2182 0.007858 0.045185 -3.020363
2011-04-21 07:37:40 51°13.682 2°55.891 18.1949 0.007858 0.045185 -3.020363
2011-04-21 07:37:45 51°13.684 2°55.884 18.2061 0.007858 0.045185 -3.020363
2011-04-21 07:37:50 51°13.686 2°55.876 18.2102 0.007858 0.045185 -3.020363
2011-04-21 07:37:55 51°13.688 2°55.869 18.2223 0.007858 0.045185 -3.020363
2011-04-21 07:38:00 51°13.69 2°55.861 18.2269 0.007858 0.045185 -3.020363
2011-04-21 07:38:05 51°13.692 2°55.853 18.2252 0.007858 0.045185 -3.020363
2011-04-21 07:38:10 51°13.694 2°55.845 18.225 0.007858 0.045185 -3.020363
2011-04-21 07:38:15 51°13.696 2°55.837 18.2259 0.007858 0.045185 -3.020363
2011-04-21 07:38:20 51°13.698 2°55.829 18.2268 0.007858 0.045185 -3.020363
2011-04-21 07:38:25 51°13.701 2°55.821 18.2437 0.007858 0.045185 -3.020363
2011-04-21 07:38:30 51°13.703 2°55.813 18.2339 0.007858 0.045185 -3.020363
2011-04-21 07:38:35 51°13.706 2°55.805 18.2364 0.007858 0.045185 -3.020363
2011-04-21 07:38:40 51°13.709 2°55.797 18.2348 0.007858 0.045185 -3.020363
2011-04-21 07:38:45 51°13.712 2°55.789 18.2347 0.007858 0.045185 -3.020363
2011-04-21 07:38:50 51°13.715 2°55.781 18.2515 0.007858 0.045185 -3.020363
2011-04-21 07:38:55 51°13.718 2°55.773 18.2531 0.007858 0.045185 -3.020363
2011-04-21 07:39:00 51°13.721 2°55.766 18.2443 0.007858 0.045185 -3.020363
2011-04-21 07:39:05 51°13.724 2°55.758 18.2417 0.007858 0.045185 -3.020363
2011-04-21 07:39:10 51°13.728 2°55.75 18.247 0.007858 0.045185 -3.020363
2011-04-21 07:39:15 51°13.732 2°55.743 18.2489 0.007858 0.045186 -3.020363
2011-04-21 07:39:20 51°13.736 2°55.735 18.2511 0.007858 0.045185 -3.020363
2011-04-21 07:39:25 51°13.74 2°55.727 18.2512 0.007858 0.045186 -3.020363
2011-04-21 07:39:30 51°13.745 2°55.72 18.2517 0.007858 0.045186 -3.020363
2011-04-21 07:39:35 51°13.75 2°55.713 18.2513 0.007858 0.045186 -3.020363
2011-04-21 07:39:40 51°13.755 2°55.706 18.2548 0.007858 0.045186 -3.020363
2011-04-21 07:39:45 51°13.759 2°55.699 18.2547 0.007858 0.045186 -3.020363
2011-04-21 07:39:50 51°13.765 2°55.692 18.2545 0.007858 0.045186 -3.020363
2011-04-21 07:39:55 51°13.77 2°55.685 18.2547 0.007858 0.045186 -3.020363
2011-04-21 07:40:00 51°13.775 2°55.678 18.2543 0.007858 0.045186 -3.020363
2011-04-21 07:40:05 51°13.781 2°55.672 18.2526 0.007858 0.045186 -3.020363
2011-04-21 07:40:10 51°13.786 2°55.666 18.2554 0.007858 0.045186 -3.020363
2011-04-21 07:40:15 51°13.792 2°55.66 18.258 0.007858 0.045186 -3.020363
2011-04-21 07:40:20 51°13.799 2°55.655 18.2603 0.007858 0.045187 -3.020363
2011-04-21 07:40:25 51°13.805 2°55.65 18.2603 0.007858 0.045186 -3.020363
2011-04-21 07:40:30 51°13.812 2°55.646 18.2716 0.007858 0.045186 -3.020363
2011-04-21 07:40:35 51°13.818 2°55.642 18.273 0.007858 0.045186 -3.020363
2011-04-21 07:40:40 51°13.825 2°55.639 18.2747 0.007858 0.045186 -3.020363
2011-04-21 07:40:45 51°13.832 2°55.636 18.2691 0.007858 0.045186 -3.020363
2011-04-21 07:40:50 51°13.839 2°55.633 18.2683 0.007858 0.045187 -3.020363
2011-04-21 07:40:55 51°13.847 2°55.631 18.272 0.007858 0.045186 -3.020363
2011-04-21 07:41:00 51°13.854 2°55.629 18.271 0.007858 0.045186 -3.020363
2011-04-21 07:41:05 51°13.861 2°55.628 18.2701 0.007858 0.045187 -3.020363
2011-04-21 07:41:10 51°13.868 2°55.627 18.2707 0.007858 0.045187 -3.020363
2011-04-21 07:41:15 51°13.874 2°55.626 18.2717 0.007858 0.045186 -3.020363
2011-04-21 07:41:20 51°13.881 2°55.625 18.2715 0.007858 0.045186 -3.020363
2011-04-21 07:41:25 51°13.887 2°55.625 18.2713 0.007858 0.045186 -3.020363
2011-04-21 07:41:30 51°13.894 2°55.625 18.2712 0.007858 0.045186 -3.020363
2011-04-21 07:41:35 51°13.9 2°55.625 18.2714 0.007858 0.045186 -3.020363
2011-04-21 07:41:40 51°13.906 2°55.625 18.2706 0.007858 0.045186 -3.020363
2011-04-21 07:41:45 51°13.911 2°55.626 18.2703 0.007858 0.045186 -3.020363
2011-04-21 07:41:50 51°13.917 2°55.627 18.2709 0.007858 0.045186 -3.020363
2011-04-21 07:41:55 51°13.922 2°55.628 18.2708 0.007858 0.045186 -3.020363
2011-04-21 07:42:00 51°13.928 2°55.629 18.2709 0.007858 0.045186 -3.020363
2011-04-21 07:42:05 51°13.933 2°55.631 18.2705 0.007858 0.045186 -3.020363
2011-04-21 07:42:10 51°13.937 2°55.632 18.2723 0.007858 0.045186 -3.020363
2011-04-21 07:42:15 51°13.942 2°55.634 18.2827 0.007858 0.045186 -3.020363
2011-04-21 07:42:20 51°13.946 2°55.636 18.2956 0.007858 0.045186 -3.020363
2011-04-21 07:42:25 51°13.95 2°55.638 18.303 0.007858 0.045186 -3.020363
2011-04-21 07:42:30 51°13.953 2°55.639 18.3092 0.007858 0.045186 -3.020363
2011-04-21 07:42:35 51°13.956 2°55.641 18.308 0.007858 0.045186 -3.020363
2011-04-21 07:42:40 51°13.958 2°55.642 18.3122 0.007858 0.045186 -3.020363
2011-04-21 07:42:45 51°13.96 2°55.643 18.3095 0.007858 0.045186 -3.020363
2011-04-21 07:42:50 51°13.961 2°55.644 18.3078 0.007858 0.045186 -3.020363
2011-04-21 07:42:55 51°13.962 2°55.644 18.308 0.007858 0.045186 -3.020363
2011-04-21 07:43:00 51°13.962 2°55.644 18.3072 0.007858 0.045186 -3.020363
2011-04-21 07:43:05 51°13.963 2°55.644 18.3067 0.007858 0.045186 -3.020363
2011-04-21 07:43:10 51°13.963 2°55.643 18.3063 0.007858 0.045186 -3.020363
2011-04-21 07:43:15 51°13.963 2°55.642 18.3108 0.007858 0.045185 -3.020363
2011-04-21 07:43:20 51°13.963 2°55.64 18.3192 0.007858 0.045185 -3.020363
2011-04-21 07:43:25 51°13.962 2°55.636 18.2733 0.007858 0.045185 -3.020363
2011-04-21 07:43:30 51°13.962 2°55.632 18.088 0.007858 0.045185 -3.020363
2011-04-21 07:43:35 51°13.961 2°55.626 18.0448 0.007858 0.045185 -3.020363
2011-04-21 07:43:40 51°13.961 2°55.62 18.0168 0.007858 0.045185 -3.020363
2011-04-21 07:43:45 51°13.962 2°55.614 17.977 0.007858 0.045185 -3.020363
2011-04-21 07:43:50 51°13.963 2°55.606 18.0829 0.007858 0.045185 -3.020363
2011-04-21 07:43:55 51°13.965 2°55.599 18.123 0.007858 0.045185 -3.020363
2011-04-21 07:44:00 51°13.967 2°55.591 18.0933 0.007858 0.045185 -3.020363
2011-04-21 07:44:05 51°13.971 2°55.583 18.1151 0.007858 0.045185 -3.020363
2011-04-21 07:44:10 51°13.975 2°55.576 18.1743 0.007858 0.045185 -3.020363
2011-04-21 07:44:15 51°13.98 2°55.568 18.224 0.007858 0.045185 -3.020363
2011-04-21 07:44:19 51°13.984 2°55.562 18.2385 0.007858 0.045185 -3.020363
2011-04-21 07:44:24 51°13.99 2°55.554 18.2605 0.007858 0.045185 -3.020363
2011-04-21 07:44:29 51°13.997 2°55.545 18.2735 0.007858 0.045185 -3.020363
2011-04-21 07:44:34 51°14.004 2°55.537 18.2755 0.007858 0.045185 -3.020363
2011-04-21 07:44:39 51°14.011 2°55.528 18.2682 0.007858 0.045185 -3.020363
2011-04-21 07:44:44 51°14.019 2°55.519 18.2625 0.007858 0.045185 -3.020363
2011-04-21 07:44:48 51°14.026 2°55.512 18.257 0.007858 0.045185 -3.020363
2011-04-21 07:44:54 51°14.037 2°55.502 18.2585 0.007858 0.045185 -3.020363
2011-04-21 07:44:59 51°14.046 2°55.493 18.2239 0.007858 0.045185 -3.020363
2011-04-21 07:45:04 51°14.055 2°55.484 18.2218 0.007858 0.045185 -3.020363
2011-04-21 07:45:09 51°14.064 2°55.476 18.2229 0.007858 0.045185 -3.020363
2011-04-21 07:45:14 51°14.073 2°55.467 18.2352 0.007858 0.045185 -3.020363
2011-04-21 07:45:19 51°14.083 2°55.459 18.2563 0.007858 0.045185 -3.020363
2011-04-21 07:45:24 51°14.093 2°55.45 18.2511 0.007858 0.045185 -3.020363
2011-04-21 07:45:29 51°14.103 2°55.441 18.255 0.007858 0.045185 -3.020363
2011-04-21 07:45:34 51°14.113 2°55.432 18.2423 0.007858 0.045185 -3.020363
2011-04-21 07:45:40 51°14.126 2°55.421 18.2496 0.007858 0.045185 -3.020363
2011-04-21 07:45:44 51°14.134 2°55.414 18.2506 0.007858 0.045185 -3.020363
2011-04-21 07:45:50 51°14.148 2°55.402 18.2374 0.007858 0.045185 -3.020363
2011-04-21 07:45:55 51°14.159 2°55.393 18.2426 0.007858 0.045185 -3.020363
2011-04-21 07:46:00 51°14.171 2°55.383 18.2441 0.007858 0.045184 -3.020363
2011-04-21 07:46:05 51°14.182 2°55.373 18.2148 0.007858 0.045184 -3.020363
2011-04-21 07:46:10 51°14.194 2°55.362 18.2109 0.007858 0.045184 -3.020363
2011-04-21 07:46:15 51°14.206 2°55.352 18.2394 0.007858 0.045184 -3.020363
2011-04-21 07:46:20 51°14.218 2°55.341 18.2571 0.007858 0.045184 -3.020363
2011-04-21 07:46:25 51°14.23 2°55.329 18.2681 0.007858 0.045184 -3.020363
2011-04-21 07:46:30 51°14.242 2°55.317 18.2567 0.007858 0.045184 -3.020363
2011-04-21 07:46:35 51°14.254 2°55.305 18.1666 0.007858 0.045184 -3.020363
2011-04-21 07:46:40 51°14.266 2°55.292 18.1458 0.007858 0.045184 -3.020363
2011-04-21 07:46:45 51°14.279 2°55.28 18.1591 0.007858 0.045184 -3.020363
2011-04-21 07:46:50 51°14.291 2°55.267 18.1565 0.007858 0.045184 -3.020363
2011-04-21 07:46:55 51°14.304 2°55.255 18.1914 0.007858 0.045184 -3.020363
2011-04-21 07:47:00 51°14.317 2°55.243 18.1721 0.007858 0.045184 -3.020363
2011-04-21 07:47:05 51°14.33 2°55.23 18.199 0.007858 0.045184 -3.020363
2011-04-21 07:47:10 51°14.343 2°55.218 18.2275 0.007858 0.045184 -3.020363
2011-04-21 07:47:15 51°14.357 2°55.204 18.1439 0.007858 0.045184 -3.020363
2011-04-21 07:47:20 51°14.371 2°55.192 18.1357 0.007858 0.045184 -3.020363
2011-04-21 07:47:25 51°14.385 2°55.179 18.1521 0.007858 0.045184 -3.020363
2011-04-21 07:47:29 51°14.396 2°55.17 18.1944 0.007858 0.045184 -3.020363
2011-04-21 07:47:35 51°14.412 2°55.154 18.0927 0.007858 0.045183 -3.020363
2011-04-21 07:47:40 51°14.426 2°55.141 18.1453 0.007858 0.045183 -3.020363
2011-04-21 07:47:45 51°14.441 2°55.128 18.1834 0.007858 0.045183 -3.020363
2011-04-21 07:47:50 51°14.455 2°55.115 18.217 0.007858 0.045184 -3.020363
2011-04-21 07:47:55 51°14.469 2°55.102 18.2604 0.007858 0.045184 -3.020363
2011-04-21 07:48:00 51°14.483 2°55.088 18.1978 0.007858 0.045183 -3.020363
2011-04-21 07:48:05 51°14.497 2°55.073 18.2001 0.007858 0.045183 -3.020363
2011-04-21 07:48:10 51°14.511 2°55.058 18.1822 0.007858 0.045183 -3.020363
2011-04-21 07:48:15 51°14.525 2°55.042 18.1785 0.007858 0.045183 -3.020363
2011-04-21 07:48:20 51°14.538 2°55.025 18.2633 0.007858 0.045183 -3.020363
2011-04-21 07:48:24 51°14.548 2°55.011 18.3296 0.007858 0.045183 -3.020363
2011-04-21 07:48:29 51°14.56 2°54.989 18.2434 0.007858 0.045183 -3.020363
2011-04-21 07:48:34 51°14.572 2°54.968 18.2217 0.007858 0.045184 -3.020363
2011-04-21 07:48:39 51°14.583 2°54.945 18.1855 0.007858 0.045184 -3.020363
2011-04-21 07:48:44 51°14.594 2°54.922 18.2605 0.007858 0.045183 -3.020363
2011-04-21 07:48:48 51°14.602 2°54.903 18.2448 0.007858 0.045183 -3.020363
2011-04-21 07:48:53 51°14.613 2°54.879 18.2515 0.007858 0.045184 -3.020363
2011-04-21 07:48:58 51°14.622 2°54.853 18.2776 0.007858 0.045183 -3.020363
2011-04-21 07:49:03 51°14.631 2°54.828 18.3078 0.007858 0.045183 -3.020363
2011-04-21 07:49:08 51°14.64 2°54.801 18.314 0.007858 0.045183 -3.020363
2011-04-21 07:49:12 51°14.646 2°54.779 18.3416 0.007858 0.045183 -3.020363
2011-04-21 07:49:17 51°14.652 2°54.75 18.3492 0.007858 0.045183 -3.020363
2011-04-21 07:49:22 51°14.656 2°54.721 18.3488 0.007858 0.045183 -3.020363
2011-04-21 07:49:27 51°14.659 2°54.692 18.3184 0.007858 0.045183 -3.020363
2011-04-21 07:49:32 51°14.661 2°54.662 18.339 0.007858 0.045183 -3.020363
2011-04-21 07:49:37 51°14.661 2°54.631 18.2824 0.007858 0.045183 -3.020363
2011-04-21 07:49:42 51°14.659 2°54.601 18.306 0.007858 0.045183 -3.020363
2011-04-21 07:49:46 51°14.656 2°54.578 18.3098 0.007858 0.045183 -3.020363
2011-04-21 07:49:52 51°14.651 2°54.543 18.2748 0.007858 0.045183 -3.020363
2011-04-21 07:49:56 51°14.646 2°54.52 18.2131 0.007858 0.045183 -3.020363
2011-04-21 07:50:01 51°14.639 2°54.491 18.1765 0.007858 0.045183 -3.020363
2011-04-21 07:50:06 51°14.631 2°54.464 18.1993 0.007858 0.045183 -3.020363
2011-04-21 07:50:12 51°14.621 2°54.43 18.2163 0.007858 0.045183 -3.020363
2011-04-21 07:50:16 51°14.613 2°54.409 18.1273 0.007858 0.045183 -3.020363
2011-04-21 07:50:22 51°14.602 2°54.377 18.2106 0.007858 0.045183 -3.020363
2011-04-21 07:50:26 51°14.594 2°54.356 18.202 0.007858 0.045183 -3.020363
2011-04-21 07:50:31 51°14.583 2°54.329 18.2174 0.007858 0.045183 -3.020363
2011-04-21 07:50:36 51°14.572 2°54.303 18.1476 0.007858 0.045183 -3.020363
2011-04-21 07:50:42 51°14.559 2°54.272 18.1933 0.007858 0.045183 -3.020363
2011-04-21 07:50:46 51°14.55 2°54.251 18.1522 0.007858 0.045183 -3.020363
2011-04-21 07:50:52 51°14.537 2°54.22 18.1478 0.007858 0.045183 -3.020363
2011-04-21 07:50:56 51°14.528 2°54.2 18.125 0.007858 0.045183 -3.020363
2011-04-21 07:51:01 51°14.517 2°54.174 18.1851 0.007858 0.045183 -3.020363
2011-04-21 07:51:07 51°14.504 2°54.143 18.1349 0.007858 0.045183 -3.020363
2011-04-21 07:51:12 51°14.493 2°54.116 18.0946 0.007858 0.045183 -3.020363
2011-04-21 07:51:16 51°14.484 2°54.095 18.0606 0.007858 0.045183 -3.020363
2011-04-21 07:51:21 51°14.474 2°54.068 18.0553 0.007858 0.045183 -3.020363
2011-04-21 07:51:26 51°14.464 2°54.041 18.1108 0.007858 0.045183 -3.020363
2011-04-21 07:51:32 51°14.454 2°54.007 18.1654 0.007858 0.045183 -3.020363
2011-04-21 07:51:36 51°14.447 2°53.984 18.1519 0.007858 0.045183 -3.020363
2011-04-21 07:51:41 51°14.439 2°53.956 18.2096 0.007858 0.045184 -3.020363
2011-04-21 07:51:47 51°14.429 2°53.922 18.1231 0.007858 0.045184 -3.020363
2011-04-21 07:51:52 51°14.421 2°53.893 18.1843 0.007858 0.045184 -3.020363
2011-04-21 07:51:56 51°14.415 2°53.87 18.1991 0.007858 0.045183 -3.020363
2011-04-21 07:52:02 51°14.406 2°53.835 18.2313 0.007858 0.045184 -3.020363
2011-04-21 07:52:07 51°14.397 2°53.807 18.1929 0.007858 0.045184 -3.020363
2011-04-21 07:52:12 51°14.389 2°53.778 18.2137 0.007858 0.045184 -3.020363
2011-04-21 07:52:16 51°14.382 2°53.755 18.2012 0.007858 0.045184 -3.020363
2011-04-21 07:52:21 51°14.374 2°53.727 18.2193 0.007858 0.045184 -3.020363
2011-04-21 07:52:26 51°14.365 2°53.698 18.2213 0.007858 0.045184 -3.020363
2011-04-21 07:52:32 51°14.355 2°53.664 18.1995 0.007858 0.045184 -3.020363
2011-04-21 07:52:36 51°14.348 2°53.641 18.2189 0.007858 0.045184 -3.020363
2011-04-21 07:52:41 51°14.339 2°53.613 18.2299 0.007858 0.045184 -3.020363
2011-04-21 07:52:46 51°14.33 2°53.585 18.2247 0.007858 0.045184 -3.020363
2011-04-21 07:52:52 51°14.319 2°53.552 18.2308 0.007858 0.045184 -3.020363
2011-04-21 07:52:56 51°14.311 2°53.529 18.2226 0.007858 0.045185 -3.020363
2011-04-21 07:53:02 51°14.3 2°53.496 18.2159 0.007858 0.045185 -3.020363
2011-04-21 07:53:06 51°14.292 2°53.474 18.1954 0.007858 0.045185 -3.020363
2011-04-21 07:53:12 51°14.28 2°53.441 18.1953 0.007858 0.045185 -3.020363
2011-04-21 07:53:16 51°14.272 2°53.418 18.2045 0.007858 0.045185 -3.020363
2011-04-21 07:53:22 51°14.261 2°53.385 18.2304 0.007858 0.045185 -3.020363
2011-04-21 07:53:26 51°14.253 2°53.362 18.2314 0.007858 0.045185 -3.020363
2011-04-21 07:53:32 51°14.241 2°53.329 18.2235 0.007858 0.045185 -3.020363
2011-04-21 07:53:36 51°14.233 2°53.306 18.2095 0.007858 0.045185 -3.020363
2011-04-21 07:53:41 51°14.223 2°53.279 18.2284 0.007858 0.045185 -3.020363
2011-04-21 07:53:46 51°14.213 2°53.251 18.2161 0.007858 0.045185 -3.020363
2011-04-21 07:53:52 51°14.201 2°53.217 18.2466 0.007858 0.045185 -3.020363
2011-04-21 07:53:56 51°14.193 2°53.195 18.2434 0.007858 0.045185 -3.020363
2011-04-21 07:54:01 51°14.183 2°53.167 18.2324 0.007858 0.045185 -3.020363
2011-04-21 07:54:06 51°14.173 2°53.139 18.2539 0.007858 0.045185 -3.020363
2011-04-21 07:54:12 51°14.161 2°53.106 18.2525 0.007858 0.045185 -3.020363
2011-04-21 07:54:16 51°14.153 2°53.084 18.2634 0.007858 0.045185 -3.020363
2011-04-21 07:54:20 51°14.145 2°53.061 18.284 0.007858 0.045186 -3.020363
2011-04-21 07:54:26 51°14.132 2°53.028 18.2982 0.007858 0.045186 -3.020363
2011-04-21 07:54:32 51°14.119 2°52.995 18.2853 0.007858 0.045186 -3.020363
2011-04-21 07:54:36 51°14.11 2°52.974 18.2896 0.007858 0.045186 -3.020363
2011-04-21 07:54:42 51°14.097 2°52.941 18.2652 0.007858 0.045186 -3.020363
2011-04-21 07:54:46 51°14.087 2°52.92 18.287 0.007858 0.045186 -3.020363
2011-04-21 07:54:51 51°14.075 2°52.894 18.2681 0.007858 0.045186 -3.020363
2011-04-21 07:54:56 51°14.063 2°52.869 18.2581 0.007858 0.045186 -3.020363
2011-04-21 07:55:01 51°14.05 2°52.843 18.2616 0.007858 0.045186 -3.020363
2011-04-21 07:55:06 51°14.038 2°52.818 18.259 0.007858 0.045186 -3.020363
2011-04-21 07:55:12 51°14.022 2°52.788 18.2444 0.007858 0.045186 -3.020363
2011-04-21 07:55:16 51°14.012 2°52.768 18.262 0.007858 0.045187 -3.020363
2011-04-21 07:55:22 51°13.996 2°52.739 18.2209 0.007858 0.045187 -3.020363
2011-04-21 07:55:26 51°13.985 2°52.719 18.1902 0.007858 0.045187 -3.020363
2011-04-21 07:55:32 51°13.97 2°52.689 18.1958 0.007858 0.045187 -3.020363
2011-04-21 07:55:36 51°13.96 2°52.668 18.1861 0.007858 0.045187 -3.020363
2011-04-21 07:55:42 51°13.945 2°52.638 18.1774 0.007858 0.045187 -3.020363
2011-04-21 07:55:47 51°13.934 2°52.611 18.2196 0.007858 0.045187 -3.020363
2011-04-21 07:55:52 51°13.922 2°52.584 18.2025 0.007858 0.045187 -3.020363
2011-04-21 07:55:56 51°13.913 2°52.563 18.2128 0.007858 0.045187 -3.020363
2011-04-21 07:56:01 51°13.902 2°52.535 18.2473 0.007858 0.045187 -3.020363
2011-04-21 07:56:07 51°13.89 2°52.502 18.2861 0.007858 0.045187 -3.020363
2011-04-21 07:56:12 51°13.879 2°52.474 18.2399 0.007858 0.045187 -3.020363
2011-04-21 07:56:16 51°13.871 2°52.452 18.268 0.007858 0.045187 -3.020363
2011-04-21 07:56:20 51°13.863 2°52.429 18.2845 0.007858 0.045188 -3.020363
2011-04-21 07:56:27 51°13.849 2°52.39 18.293 0.007858 0.045188 -3.020363
2011-04-21 07:56:32 51°13.839 2°52.362 18.2935 0.007858 0.045188 -3.020363
2011-04-21 07:56:36 51°13.831 2°52.34 18.293 0.007858 0.045188 -3.020363
2011-04-21 07:56:41 51°13.821 2°52.311 18.2789 0.007858 0.045188 -3.020363
2011-04-21 07:56:46 51°13.81 2°52.284 18.2948 0.007858 0.045188 -3.020363
2011-04-21 07:56:52 51°13.797 2°52.251 18.287 0.007858 0.045188 -3.020363
2011-04-21 07:56:56 51°13.789 2°52.229 18.305 0.007858 0.045188 -3.020363
2011-04-21 07:57:02 51°13.775 2°52.196 18.3339 0.007858 0.045188 -3.020363
2011-04-21 07:57:06 51°13.766 2°52.174 18.3369 0.007858 0.045188 -3.020363
2011-04-21 07:57:11 51°13.755 2°52.148 18.3184 0.007858 0.045189 -3.020363
2011-04-21 07:57:16 51°13.742 2°52.122 18.259 0.007858 0.045189 -3.020363
2011-04-21 07:57:21 51°13.73 2°52.096 18.2744 0.007858 0.045189 -3.020363
2011-04-21 07:57:26 51°13.717 2°52.071 18.2938 0.007858 0.045189 -3.020363
2011-04-21 07:57:32 51°13.701 2°52.041 18.2798 0.007858 0.045189 -3.020363
2011-04-21 07:57:36 51°13.691 2°52.021 18.264 0.007858 0.045189 -3.020363
2011-04-21 07:57:42 51°13.676 2°51.99 18.2599 0.007858 0.045189 -3.020363
2011-04-21 07:57:46 51°13.666 2°51.97 18.2088 0.007858 0.045189 -3.020363
2011-04-21 07:57:52 51°13.651 2°51.939 18.1992 0.007858 0.045189 -3.020363
2011-04-21 07:57:56 51°13.642 2°51.917 18.2071 0.007858 0.045189 -3.020363
2011-04-21 07:58:02 51°13.628 2°51.885 18.2159 0.007858 0.045189 -3.020363
2011-04-21 07:58:06 51°13.62 2°51.862 18.2534 0.007858 0.045189 -3.020363
2011-04-21 07:58:12 51°13.608 2°51.828 18.2771 0.007858 0.045189 -3.020363
2011-04-21 07:58:16 51°13.6 2°51.806 18.2872 0.007858 0.045189 -3.020363
2011-04-21 07:58:21 51°13.589 2°51.777 18.2961 0.007858 0.045189 -3.020363
2011-04-21 07:58:26 51°13.579 2°51.749 18.3079 0.007858 0.04519 -3.020363
2011-04-21 07:58:32 51°13.567 2°51.715 18.3208 0.007858 0.045189 -3.020363
2011-04-21 07:58:36 51°13.559 2°51.693 18.3317 0.007858 0.045189 -3.020363
2011-04-21 07:58:41 51°13.549 2°51.664 18.343 0.007858 0.04519 -3.020363
2011-04-21 07:58:46 51°13.538 2°51.636 18.3561 0.007858 0.04519 -3.020363
2011-04-21 07:58:52 51°13.525 2°51.603 18.3587 0.007858 0.04519 -3.020363
2011-04-21 07:58:56 51°13.515 2°51.582 18.3141 0.007858 0.04519 -3.020363
2011-04-21 07:59:02 51°13.501 2°51.551 18.2944 0.007858 0.04519 -3.020363
2011-04-21 07:59:06 51°13.491 2°51.531 18.3266 0.007858 0.04519 -3.020363
2011-04-21 07:59:12 51°13.475 2°51.5 18.283 0.007858 0.04519 -3.020363
2011-04-21 07:59:16 51°13.465 2°51.479 18.32 0.007858 0.04519 -3.020363
2011-04-21 07:59:21 51°13.452 2°51.454 18.2881 0.007858 0.04519 -3.020363
2011-04-21 07:59:26 51°13.439 2°51.429 18.2796 0.007858 0.04519 -3.020363
2011-04-21 07:59:32 51°13.424 2°51.399 18.2924 0.007858 0.04519 -3.020363
2011-04-21 07:59:36 51°13.414 2°51.378 18.3015 0.007858 0.04519 -3.020363
2011-04-21 07:59:41 51°13.401 2°51.353 18.2892 0.007858 0.04519 -3.020363
2011-04-21 07:59:46 51°13.389 2°51.327 18.2109 0.007858 0.04519 -3.020363
2011-04-21 07:59:52 51°13.374 2°51.296 18.2003 0.007858 0.04519 -3.020363
2011-04-21 07:59:56 51°13.365 2°51.274 18.2406 0.007858 0.04519 -3.020363
2011-04-21 08:00:01 51°13.353 2°51.247 18.2483 0.007858 0.04519 -3.020363
2011-04-21 08:00:06 51°13.343 2°51.219 18.2943 0.007858 0.04519 -3.020363
2011-04-21 08:00:12 51°13.33 2°51.185 18.3173 0.007858 0.04519 -3.020363
2011-04-21 08:00:16 51°13.322 2°51.162 18.3359 0.007858 0.04519 -3.020363
2011-04-21 08:00:21 51°13.312 2°51.134 18.3028 0.007858 0.04519 -3.020363
2011-04-21 08:00:26 51°13.303 2°51.105 18.3274 0.007858 0.04519 -3.020363
2011-04-21 08:00:32 51°13.29 2°51.071 18.3419 0.007858 0.04519 -3.020363
2011-04-21 08:00:36 51°13.283 2°51.048 18.3592 0.007858 0.04519 -3.020363
2011-04-21 08:00:41 51°13.272 2°51.02 18.3356 0.007858 0.04519 -3.020363
2011-04-21 08:00:46 51°13.262 2°50.992 18.287 0.007858 0.04519 -3.020363
2011-04-21 08:00:52 51°13.249 2°50.958 18.3124 0.007858 0.04519 -3.020363
2011-04-21 08:00:56 51°13.241 2°50.936 18.281 0.007858 0.04519 -3.020363
2011-04-21 08:01:02 51°13.228 2°50.903 14.7256 0.007858 0.045208 -3.020363
2011-04-21 08:01:06 51°13.219 2°50.88 14.1898 0.007858 0.045208 -3.020363
2011-04-21 08:01:12 51°13.207 2°50.847 13.7559 0.007858 0.04521 -3.020363
2011-04-21 08:01:16 51°13.198 2°50.824 13.3275 1.235573 8.035378 -3.020363
2011-04-21 08:01:22 51°13.186 2°50.79 13.1894 3.723103 26.960569 -3.020363
2011-04-21 08:01:26 51°13.178 2°50.768 13.0992 3.868549 28.541292 -3.020363
2011-04-21 08:01:31 51°13.167 2°50.74 13.0272 3.980567 29.934018 -3.020363
2011-04-21 08:01:36 51°13.157 2°50.712 12.9776 3.980567 29.934018 -3.020363
2011-04-21 08:01:41 51°13.146 2°50.684 12.8872 3.93727 30.607752 -3.020363
2011-04-21 08:01:46 51°13.135 2°50.656 12.8127 3.915625 31.068866 -3.020363
2011-04-21 08:01:52 51°13.121 2°50.624 12.7522 3.876781 31.374189 -3.020363
2011-04-21 08:01:56 51°13.112 2°50.602 12.7169 3.842391 31.476661 -3.020363
2011-04-21 08:02:01 51°13.1 2°50.576 12.7029 3.812042 31.501089 -3.020363
2011-04-21 08:02:06 51°13.087 2°50.551 12.6745 3.812042 31.501089 -3.020363
2011-04-21 08:02:12 51°13.072 2°50.52 12.6638 3.792362 31.503448 -3.020363
2011-04-21 08:02:16 51°13.061 2°50.5 12.6383 3.756316 31.319291 -3.020363
2011-04-21 08:02:21 51°13.048 2°50.475 12.6283 3.745442 31.348009 -3.020363
2011-04-21 08:02:26 51°13.035 2°50.451 12.6089 3.743579 31.426076 -3.020363
2011-04-21 08:02:32 51°13.018 2°50.422 12.6284 3.731047 31.375854 -3.020363
2011-04-21 08:02:36 51°13.007 2°50.403 12.613 3.731047 31.375854 -3.020363
2011-04-21 08:02:41 51°12.993 2°50.379 12.5824 3.722555 31.350642 -3.020363
2011-04-21 08:02:47 51°12.977 2°50.35 12.572 3.724523 31.411483 -3.020363
2011-04-21 08:02:52 51°12.963 2°50.326 12.5946 3.715823 31.365941 -3.020363
2011-04-21 08:02:56 51°12.953 2°50.306 12.5612 3.706709 31.312192 -3.020363
2011-04-21 08:03:01 51°12.94 2°50.282 12.5801 3.696974 31.239814 -3.020363
2011-04-21 08:03:06 51°12.927 2°50.256 12.5632 3.696974 31.239814 -3.020363
2011-04-21 08:03:12 51°12.912 2°50.225 12.5653 3.708678 31.361143 -3.020363
2011-04-21 08:03:16 51°12.902 2°50.204 12.5632 3.696664 31.264459 -3.020363
2011-04-21 08:03:21 51°12.89 2°50.179 12.5477 3.708367 31.393012 -3.020363
2011-04-21 08:03:26 51°12.878 2°50.152 12.5458 3.699357 31.321678 -3.020363
2011-04-21 08:03:31 51°12.866 2°50.126 12.5309 3.697596 31.315745 -3.020363
2011-04-21 08:03:36 51°12.854 2°50.099 12.5405 3.697596 31.315745 -3.020363
2011-04-21 08:03:41 51°12.842 2°50.073 12.5326 3.711889 31.460364 -3.020363
2011-04-21 08:03:46 51°12.831 2°50.047 12.5125 3.707954 31.431108 -3.020363
2011-04-21 08:03:52 51°12.816 2°50.015 12.5203 3.706193 31.420212 -3.020363
2011-04-21 08:03:56 51°12.807 2°49.994 12.5177 3.713133 31.492787 -3.020363
2011-04-21 08:04:02 51°12.793 2°49.962 12.5061 3.71479 31.517001 -3.020363
2011-04-21 08:04:06 51°12.783 2°49.941 12.5048 3.71479 31.517001 -3.020363
2011-04-21 08:04:11 51°12.772 2°49.915 12.5033 3.719037 31.564955 -3.020363
2011-04-21 08:04:16 51°12.76 2°49.888 12.5048 3.717483 31.559605 -3.020363
2011-04-21 08:04:22 51°12.747 2°49.856 12.5125 3.71334 31.529084 -3.020363
2011-04-21 08:04:26 51°12.737 2°49.835 12.5047 3.71738 31.57297 -3.020363
2011-04-21 08:04:32 51°12.724 2°49.802 12.5096 3.730223 31.703692 -3.020363
2011-04-21 08:04:36 51°12.715 2°49.781 12.5097 3.730223 31.703692 -3.020363
2011-04-21 08:04:42 51°12.701 2°49.749 12.5082 3.742756 31.82728 -3.020363
2011-04-21 08:04:46 51°12.692 2°49.727 12.5148 3.741513 31.820586 -3.020363
2011-04-21 08:04:52 51°12.678 2°49.695 12.5162 3.741928 31.82885 -3.020363
2011-04-21 08:04:56 51°12.669 2°49.674 12.5088 3.742342 31.834219 -3.020363
2011-04-21 08:05:01 51°12.658 2°49.648 12.5002 3.752079 31.927837 -3.020363
2011-04-21 08:05:06 51°12.646 2°49.622 12.4927 3.752079 31.927837 -3.020363
2011-04-21 08:05:12 51°12.632 2°49.591 12.4942 3.745657 31.86704 -3.020363
2011-04-21 08:05:16 51°12.622 2°49.571 12.4898 3.747107 31.882217 -3.020363
2011-04-21 08:05:21 51°12.609 2°49.545 12.4813 3.752907 31.93859 -3.020363
2011-04-21 08:05:26 51°12.597 2°49.52 12.4911 3.759951 32.0053 -3.020363
2011-04-21 08:05:32 51°12.582 2°49.49 12.4871 3.760987 32.018026 -3.020363
2011-04-21 08:05:36 51°12.573 2°49.469 12.4833 3.760987 32.018026 -3.020363
2011-04-21 08:05:41 51°12.563 2°49.442 12.4792 3.769377 32.104103 -3.020363
2011-04-21 08:05:46 51°12.553 2°49.415 12.4824 3.767927 32.092548 -3.020363
2011-04-21 08:05:52 51°12.541 2°49.381 12.483 3.769274 32.108237 -3.020363
2011-04-21 08:05:56 51°12.534 2°49.358 12.4806 3.781394 32.230504 -3.020363
2011-04-21 08:06:02 51°12.523 2°49.324 12.4867 3.786987 32.284317 -3.020363
2011-04-21 08:06:06 51°12.517 2°49.301 12.4821 3.786987 32.284317 -3.020363
2011-04-21 08:06:11 51°12.508 2°49.272 12.4723 3.781704 32.236389 -3.020363
2011-04-21 08:06:16 51°12.5 2°49.242 12.4759 3.791338 32.330764 -3.020363
2011-04-21 08:06:22 51°12.491 2°49.207 12.4644 3.793824 32.355841 -3.020363
2011-04-21 08:06:26 51°12.485 2°49.183 12.4618 3.795896 32.375513 -3.020363
2011-04-21 08:06:32 51°12.476 2°49.148 12.4601 3.792167 32.340105 -3.020363
2011-04-21 08:06:36 51°12.47 2°49.124 12.4598 3.792167 32.340105 -3.020363
2011-04-21 08:06:42 51°12.46 2°49.088 12.4557 3.79859 32.402566 -3.020363
2011-04-21 08:06:46 51°12.454 2°49.064 12.4612 3.790924 32.331986 -3.020363
2011-04-21 08:06:52 51°12.444 2°49.029 12.4582 3.795482 32.380431 -3.020363
2011-04-21 08:06:56 51°12.438 2°49.005 12.456 3.805738 32.481561 -3.020363
2011-04-21 08:07:02 51°12.428 2°48.97 12.4542 3.804391 32.474685 -3.020363
2011-04-21 08:07:06 51°12.422 2°48.946 12.4507 3.804391 32.474685 -3.020363
2011-04-21 08:07:12 51°12.411 2°48.911 12.454 3.811228 32.542646 -3.020363
2011-04-21 08:07:16 51°12.405 2°48.888 12.4501 3.804184 32.480121 -3.020363
2011-04-21 08:07:21 51°12.395 2°48.859 12.4556 3.811435 32.549811 -3.020363
2011-04-21 08:07:26 51°12.386 2°48.831 12.4478 3.80522 32.492933 -3.020363
2011-04-21 08:07:32 51°12.373 2°48.798 12.4572 3.810296 32.542685 -3.020363
2011-04-21 08:07:36 51°12.365 2°48.776 12.4431 3.810296 32.542685 -3.020363
2011-04-21 08:07:41 51°12.354 2°48.748 12.4518 3.808121 32.525706 -3.020363
2011-04-21 08:07:46 51°12.344 2°48.721 12.4465 3.807085 32.516595 -3.020363
2011-04-21 08:07:52 51°12.33 2°48.689 12.4502 3.805945 32.5065 -3.020363
2011-04-21 08:07:56 51°12.322 2°48.667 12.45 3.801698 32.468333 -3.020363
2011-04-21 08:08:01 51°12.311 2°48.64 12.4565 3.806774 32.517348 -3.020363
2011-04-21 08:08:06 51°12.3 2°48.613 12.4516 3.806774 32.517348 -3.020363
2011-04-21 08:08:12 51°12.287 2°48.581 12.4575 3.808017 32.530657 -3.020363
2011-04-21 08:08:16 51°12.278 2°48.559 12.4535 3.807085 32.523272 -3.020363
2011-04-21 08:08:21 51°12.267 2°48.531 12.4607 3.805013 32.504307 -3.020363
2011-04-21 08:08:26 51°12.257 2°48.504 12.4547 3.804391 32.498394 -3.020363
2011-04-21 08:08:31 51°12.246 2°48.476 12.4598 3.805634 32.510219 -3.020363
2011-04-21 08:08:36 51°12.236 2°48.449 12.4672 3.805634 32.510219 -3.020363
2011-04-21 08:08:41 51°12.227 2°48.42 12.4534 3.803148 32.485089 -3.020363
2011-04-21 08:08:46 51°12.218 2°48.391 12.4573 3.80118 32.46637 -3.020363
2011-04-21 08:08:52 51°12.207 2°48.356 12.4497 3.801076 32.463904 -3.020363
2011-04-21 08:08:56 51°12.201 2°48.333 12.4634 3.801284 32.465133 -3.020363
2011-04-21 08:09:02 51°12.191 2°48.297 12.4693 3.803148 32.481383 -3.020363
2011-04-21 08:09:07 51°12.184 2°48.267 12.4575 3.803148 32.481383 -3.020363
2011-04-21 08:09:12 51°12.176 2°48.237 12.4372 3.80118 32.459705 -3.020363
2011-04-21 08:09:16 51°12.17 2°48.213 12.4377 3.809985 32.543441 -3.020363
2011-04-21 08:09:21 51°12.163 2°48.183 12.4364 3.805842 32.506256 -3.020363
2011-04-21 08:09:26 51°12.156 2°48.153 12.4275 3.812679 32.572775 -3.020363
2011-04-21 08:09:32 51°12.147 2°48.117 12.4283 3.809882 32.543198 -3.020363
2011-04-21 08:09:36 51°12.141 2°48.093 12.4258 3.809882 32.543198 -3.020363
2011-04-21 08:09:41 51°12.133 2°48.063 12.4256 3.81185 32.563405 -3.020363
2011-04-21 08:09:46 51°12.125 2°48.033 12.4252 3.811643 32.566635 -3.020363
2011-04-21 08:09:52 51°12.115 2°47.998 12.428 3.811954 32.575538 -3.020363
2011-04-21 08:09:56 51°12.108 2°47.975 12.4231 3.817652 32.635723 -3.020363
2011-04-21 08:10:01 51°12.099 2°47.946 12.4219 3.815269 32.617508 -3.020363
2011-04-21 08:10:06 51°12.089 2°47.918 12.427 3.815269 32.617508 -3.020363
2011-04-21 08:10:12 51°12.077 2°47.885 12.4254 3.824385 32.708799 -3.020363
2011-04-21 08:10:16 51°12.069 2°47.863 12.4294 3.829876 32.762603 -3.020363
2011-04-21 08:10:21 51°12.058 2°47.836 12.4362 3.826768 32.735234 -3.020363
2011-04-21 08:10:26 51°12.047 2°47.808 12.4385 3.831223 32.778429 -3.020363
2011-04-21 08:10:32 51°12.035 2°47.776 12.4395 3.833606 32.803385 -3.020363
2011-04-21 08:10:36 51°12.026 2°47.754 12.4436 3.833606 32.803385 -3.020363
2011-04-21 08:10:41 51°12.015 2°47.727 12.4424 3.832259 32.7898 -3.020363
2011-04-21 08:10:46 51°12.004 2°47.7 12.4476 3.825007 32.721445 -3.020363
2011-04-21 08:10:52 51°11.992 2°47.667 12.4472 3.823453 32.705893 -3.020363
2011-04-21 08:10:56 51°11.984 2°47.645 12.4472 3.824075 32.708826 -3.020363
2011-04-21 08:11:01 51°11.973 2°47.617 12.4509 3.826872 32.733231 -3.020363
2011-04-21 08:11:06 51°11.964 2°47.589 12.4447 3.826872 32.733231 -3.020363
2011-04-21 08:11:11 51°11.955 2°47.561 12.4499 3.826665 32.728268 -3.020363
2011-04-21 08:11:16 51°11.946 2°47.532 12.4462 3.822313 32.685332 -3.020363
2011-04-21 08:11:21 51°11.938 2°47.503 12.4414 3.82221 32.682853 -3.020363
2011-04-21 08:11:26 51°11.93 2°47.473 12.4424 3.830394 32.758561 -3.020363
2011-04-21 08:11:32 51°11.921 2°47.437 12.4391 3.825111 32.706744 -3.020363
2011-04-21 08:11:36 51°11.915 2°47.413 12.4371 3.825111 32.706744 -3.020363
2011-04-21 08:11:41 51°11.908 2°47.384 12.4397 3.831223 32.764212 -3.020363
2011-04-21 08:11:46 51°11.901 2°47.354 12.4356 3.834642 32.796779 -3.020363
2011-04-21 08:11:52 51°11.892 2°47.318 12.428 3.836921 32.817744 -3.020363
2011-04-21 08:11:56 51°11.886 2°47.294 12.4251 3.837439 32.823429 -3.020363
2011-04-21 08:12:01 51°11.88 2°47.263 12.4245 3.837128 32.822715 -3.020363
2011-04-21 08:12:07 51°11.871 2°47.227 12.4224 3.837128 32.822715 -3.020363
2011-04-21 08:12:12 51°11.864 2°47.197 12.4261 3.839096 32.843721 -3.020363
2011-04-21 08:12:16 51°11.858 2°47.173 12.4267 3.841583 32.869669 -3.020363
2011-04-21 08:12:22 51°11.849 2°47.138 12.4275 3.840236 32.859083 -3.020363
2011-04-21 08:12:26 51°11.842 2°47.114 12.4302 3.838889 32.849997 -3.020363
2011-04-21 08:12:32 51°11.832 2°47.079 12.4352 3.844898 32.910289 -3.020363
2011-04-21 08:12:36 51°11.825 2°47.056 12.435 3.844898 32.910289 -3.020363
2011-04-21 08:12:41 51°11.816 2°47.027 12.4398 3.842412 32.888835 -3.020363
2011-04-21 08:12:46 51°11.807 2°46.999 12.44 3.846245 32.927645 -3.020363
2011-04-21 08:12:52 51°11.795 2°46.966 12.4442 3.846452 32.929621 -3.020363
2011-04-21 08:12:56 51°11.786 2°46.944 12.4464 3.845313 32.918 -3.020363
2011-04-21 08:13:01 51°11.776 2°46.916 12.4536 3.844587 32.910332 -3.020363
2011-04-21 08:13:06 51°11.766 2°46.889 12.4541 3.844587 32.910332 -3.020363
2011-04-21 08:13:12 51°11.753 2°46.856 12.4594 3.840858 32.873266 -3.020363
2011-04-21 08:13:16 51°11.744 2°46.835 12.4603 3.843033 32.891756 -3.020363
2011-04-21 08:13:21 51°11.733 2°46.808 12.4643 3.840961 32.869749 -3.020363
2011-04-21 08:13:26 51°11.723 2°46.78 12.4658 3.840236 32.860584 -3.020363
2011-04-21 08:13:32 51°11.71 2°46.747 12.4717 3.838682 32.842772 -3.020363
2011-04-21 08:13:36 51°11.702 2°46.725 12.4701 3.838682 32.842772 -3.020363
2011-04-21 08:13:41 51°11.693 2°46.697 12.466 3.836196 32.816079 -3.020363
2011-04-21 08:13:47 51°11.682 2°46.663 12.4617 3.836092 32.811346 -3.020363
2011-04-21 08:13:52 51°11.673 2°46.634 12.465 3.838889 32.835 -3.020363
2011-04-21 08:13:56 51°11.666 2°46.61 12.4516 3.841997 32.860863 -3.020363
2011-04-21 08:14:01 51°11.658 2°46.581 12.4469 3.841893 32.856127 -3.020363
2011-04-21 08:14:06 51°11.651 2°46.551 12.4417 3.841893 32.856127 -3.020363
2011-04-21 08:14:12 51°11.642 2°46.515 12.4339 3.841065 32.845982 -3.020363
2011-04-21 08:14:16 51°11.636 2°46.491 12.4302 3.843137 32.865721 -3.020363
2011-04-21 08:14:20 51°11.63 2°46.467 12.4203 3.847799 32.910138 -3.020363
2011-04-21 08:14:27 51°11.62 2°46.425 12.4246 3.844483 32.880052 -3.020363
2011-04-21 08:14:32 51°11.613 2°46.395 12.4183 3.848938 32.927761 -3.020363
2011-04-21 08:14:36 51°11.607 2°46.371 12.4085 3.848938 32.927761 -3.020363
2011-04-21 08:14:41 51°11.6 2°46.341 12.4082 3.84552 32.901186 -3.020363
2011-04-21 08:14:46 51°11.592 2°46.311 12.4057 3.849664 32.946706 -3.020363
2011-04-21 08:14:52 51°11.583 2°46.275 12.4043 3.855569 33.007541 -3.020363
2011-04-21 08:14:56 51°11.577 2°46.252 12.4023 3.853186 32.989334 -3.020363
2011-04-21 08:15:01 51°11.568 2°46.222 12.3942 3.852876 32.990891 -3.020363
2011-04-21 08:15:06 51°11.559 2°46.194 12.3939 3.852876 32.990891 -3.020363
2011-04-21 08:15:12 51°11.548 2°46.159 12.3932 3.857641 33.040891 -3.020363
2011-04-21 08:15:16 51°11.541 2°46.137 12.3902 3.855155 33.023955 -3.020363
2011-04-21 08:15:21 51°11.53 2°46.11 12.3929 3.855155 33.027729 -3.020363
2011-04-21 08:15:26 51°11.52 2°46.082 12.395 3.856709 33.045585 -3.020363
2011-04-21 08:15:32 51°11.508 2°46.049 12.3977 3.856709 33.047852 -3.020363
2011-04-21 08:15:36 51°11.5 2°46.027 12.399 3.856709 33.047852 -3.020363
2011-04-21 08:15:41 51°11.491 2°45.999 12.4087 3.85961 33.080845 -3.020363
2011-04-21 08:15:47 51°11.479 2°45.965 12.4062 3.861786 33.104652 -3.020363
2011-04-21 08:15:52 51°11.471 2°45.936 12.4054 3.85961 33.086141 -3.020363
2011-04-21 08:15:56 51°11.464 2°45.913 12.4022 3.856709 33.058434 -3.020363
2011-04-21 08:16:01 51°11.456 2°45.884 12.4046 3.869556 33.179647 -3.020363
2011-04-21 08:16:06 51°11.447 2°45.855 12.4008 3.869556 33.179647 -3.020363
2011-04-21 08:16:12 51°11.438 2°45.819 12.4021 3.868106 33.16427 -3.020363
2011-04-21 08:16:16 51°11.432 2°45.795 12.3964 3.866863 33.149359 -3.020363
2011-04-21 08:16:20 51°11.426 2°45.771 12.3902 3.868831 33.16589 -3.020363
2011-04-21 08:16:27 51°11.416 2°45.73 12.3884 3.869038 33.167111 -3.020363
2011-04-21 08:16:32 51°11.409 2°45.7 12.3861 3.869142 33.168101 -3.020363
2011-04-21 08:16:36 51°11.403 2°45.676 12.3851 3.869142 33.168101 -3.020363
2011-04-21 08:16:42 51°11.394 2°45.64 12.3827 3.8708 33.185455 -3.020363
2011-04-21 08:16:46 51°11.388 2°45.616 12.375 3.872147 33.199842 -3.020363
2011-04-21 08:16:52 51°11.379 2°45.581 12.3788 3.868935 33.171431 -3.020363
2011-04-21 08:16:56 51°11.373 2°45.557 12.3721 3.873597 33.21902 -3.020363
2011-04-21 08:17:01 51°11.365 2°45.527 12.3743 3.872043 33.206446 -3.020363
2011-04-21 08:17:06 51°11.357 2°45.498 12.3713 3.872043 33.206446 -3.020363
2011-04-21 08:17:12 51°11.348 2°45.463 12.3716 3.875359 33.240416 -3.020363
2011-04-21 08:17:16 51°11.341 2°45.44 12.3691 3.872458 33.216486 -3.020363
2011-04-21 08:17:22 51°11.33 2°45.405 12.3687 3.877845 33.271799 -3.020363
2011-04-21 08:17:26 51°11.323 2°45.383 12.3736 3.87598 33.256249 -3.020363
2011-04-21 08:17:31 51°11.313 2°45.355 12.3749 3.878156 33.278579 -3.020363
2011-04-21 08:17:36 51°11.304 2°45.327 12.379 3.878156 33.278579 -3.020363
2011-04-21 08:17:41 51°11.294 2°45.299 12.387 3.875877 33.259825 -3.020363
2011-04-21 08:17:46 51°11.284 2°45.272 12.3879 3.876084 33.264091 -3.020363
2011-04-21 08:17:52 51°11.272 2°45.239 12.3878 3.877638 33.28048 -3.020363
2011-04-21 08:17:56 51°11.263 2°45.218 12.3885 3.878467 33.288408 -3.020363
2011-04-21 08:18:02 51°11.25 2°45.186 12.3879 3.874115 33.246025 -3.020363
2011-04-21 08:18:07 51°11.239 2°45.159 12.3879 3.874115 33.246025 -3.020363
2011-04-21 08:18:12 51°11.228 2°45.133 12.3884 3.879918 33.299997 -3.020363
2011-04-21 08:18:16 51°11.22 2°45.111 12.3895 3.881886 33.315779 -3.020363
2011-04-21 08:18:21 51°11.21 2°45.084 12.3926 3.880228 33.297635 -3.020363
2011-04-21 08:18:26 51°11.2 2°45.057 12.3914 3.883129 33.323096 -3.020363
2011-04-21 08:18:32 51°11.189 2°45.024 12.3864 3.882922 33.319589 -3.020363
2011-04-21 08:18:36 51°11.182 2°45.002 12.3841 3.882922 33.319589 -3.020363
2011-04-21 08:18:41 51°11.174 2°44.973 12.3768 3.88085 33.299009 -3.020363
2011-04-21 08:18:46 51°11.166 2°44.944 12.3704 3.884373 33.331937 -3.020363
2011-04-21 08:18:52 51°11.158 2°44.908 12.3661 3.88603 33.346267 -3.020363
2011-04-21 08:18:56 51°11.152 2°44.885 12.3596 3.885098 33.335823 -3.020363
2011-04-21 08:19:01 51°11.146 2°44.855 12.3564 3.885305 33.337805 -3.020363
2011-04-21 08:19:06 51°11.14 2°44.825 12.3515 3.885305 33.337805 -3.020363
2011-04-21 08:19:12 51°11.133 2°44.789 12.3488 3.882922 33.315777 -3.020363
2011-04-21 08:19:16 51°11.128 2°44.765 12.3443 3.88717 33.359458 -3.020363
2011-04-21 08:19:21 51°11.123 2°44.735 12.3402 3.886963 33.36282 -3.020363
2011-04-21 08:19:26 51°11.117 2°44.705 12.3343 3.888206 33.378536 -3.020363
2011-04-21 08:19:31 51°11.11 2°44.675 12.3324 3.892351 33.423553 -3.020363
2011-04-21 08:19:36 51°11.104 2°44.645 12.3307 3.892351 33.423553 -3.020363
2011-04-21 08:19:41 51°11.097 2°44.615 12.3274 3.891833 33.423185 -3.020363
2011-04-21 08:19:46 51°11.091 2°44.585 12.3285 3.891004 33.419842 -3.020363
2011-04-21 08:19:52 51°11.082 2°44.55 12.3301 3.890279 33.418256 -3.020363
2011-04-21 08:19:56 51°11.076 2°44.527 12.332 3.894009 33.45934 -3.020363
2011-04-21 08:20:01 51°11.067 2°44.499 12.332 3.895667 33.479823 -3.020363
2011-04-21 08:20:07 51°11.057 2°44.465 12.3323 3.895667 33.479823 -3.020363
2011-04-21 08:20:12 51°11.047 2°44.437 12.3418 3.895874 33.484877 -3.020363
2011-04-21 08:20:16 51°11.04 2°44.415 12.3487 3.896185 33.491693 -3.020363
2011-04-21 08:20:21 51°11.03 2°44.388 12.3496 3.896392 33.49675 -3.020363
2011-04-21 08:20:27 51°11.018 2°44.356 12.3508 3.896081 33.493771 -3.020363
2011-04-21 08:20:32 51°11.007 2°44.329 12.3571 3.896081 33.494539 -3.020363
2011-04-21 08:20:36 51°11 2°44.307 12.3568 3.896081 33.494539 -3.020363
2011-04-21 08:20:41 51°10.99 2°44.28 12.3594 3.896081 33.493771 -3.020363
2011-04-21 08:20:46 51°10.98 2°44.253 12.3629 3.894216 33.473597 -3.020363
2011-04-21 08:20:52 51°10.968 2°44.221 12.3617 3.895874 33.484877 -3.020363
2011-04-21 08:20:56 51°10.96 2°44.199 12.3595 3.895356 33.476845 -3.020363
2011-04-21 08:21:01 51°10.95 2°44.173 12.3557 3.894838 33.468047 -3.020363
2011-04-21 08:21:06 51°10.94 2°44.146 12.3553 3.894838 33.468047 -3.020363
2011-04-21 08:21:12 51°10.929 2°44.113 12.3542 3.896288 33.478874 -3.020363
2011-04-21 08:21:16 51°10.921 2°44.092 12.355 3.895977 33.472829 -3.020363
2011-04-21 08:21:22 51°10.91 2°44.059 12.3543 3.896392 33.474499 -3.020363
2011-04-21 08:21:26 51°10.903 2°44.037 12.3524 3.897117 33.479911 -3.020363
2011-04-21 08:21:32 51°10.893 2°44.003 12.347 3.897635 33.48564 -3.020363
2011-04-21 08:21:36 51°10.887 2°43.98 12.35 3.897635 33.48564 -3.020363
2011-04-21 08:21:41 51°10.881 2°43.95 12.3445 3.897739 33.488166 -3.020363
2011-04-21 08:21:46 51°10.875 2°43.921 12.3466 3.898464 33.495881 -3.020363
2011-04-21 08:21:52 51°10.868 2°43.886 12.3443 3.898153 33.492903 -3.020363
2011-04-21 08:21:56 51°10.863 2°43.862 12.3396 3.898257 33.493128 -3.020363
2011-04-21 08:22:02 51°10.857 2°43.826 12.3348 3.898257 33.493896 -3.020363
2011-04-21 08:22:06 51°10.853 2°43.802 12.3373 3.898257 33.493896 -3.020363
2011-04-21 08:22:12 51°10.847 2°43.766 12.3319 3.898361 33.496423 -3.020363
2011-04-21 08:22:16 51°10.843 2°43.742 12.3325 3.898464 33.49895 -3.020363
2011-04-21 08:22:22 51°10.837 2°43.706 12.3306 3.897221 33.488574 -3.020363
2011-04-21 08:22:26 51°10.833 2°43.682 12.3309 3.893387 33.452619 -3.020363
2011-04-21 08:22:32 51°10.826 2°43.647 12.3306 3.892455 33.446753 -3.020363
2011-04-21 08:22:36 51°10.821 2°43.623 12.3291 3.892455 33.446753 -3.020363
2011-04-21 08:22:42 51°10.814 2°43.587 12.3301 3.896185 33.486321 -3.020363
2011-04-21 08:22:47 51°10.807 2°43.558 12.3264 3.897221 33.498551 -3.020363
2011-04-21 08:22:52 51°10.801 2°43.529 12.3253 3.897843 33.50758 -3.020363
2011-04-21 08:22:56 51°10.795 2°43.505 12.3247 3.895563 33.487271 -3.020363
2011-04-21 08:23:01 51°10.787 2°43.477 12.3245 3.89577 33.490792 -3.020363
2011-04-21 08:23:07 51°10.777 2°43.443 12.3264 3.89577 33.490792 -3.020363
2011-04-21 08:23:12 51°10.768 2°43.416 12.3294 3.895356 33.487588 -3.020363
2011-04-21 08:23:16 51°10.76 2°43.394 12.3289 3.89577 33.492328 -3.020363
2011-04-21 08:23:20 51°10.753 2°43.372 12.3327 3.895667 33.492871 -3.020363
2011-04-21 08:23:26 51°10.741 2°43.34 12.3378 3.896081 33.499147 -3.020363
2011-04-21 08:23:32 51°10.729 2°43.308 12.342 3.896392 33.503663 -3.020363
2011-04-21 08:23:36 51°10.721 2°43.287 12.3463 3.896392 33.503663 -3.020363
2011-04-21 08:23:42 51°10.709 2°43.255 12.3459 3.895978 33.49969 -3.020363
2011-04-21 08:23:46 51°10.701 2°43.234 12.3472 3.897636 33.514813 -3.020363
2011-04-21 08:23:51 51°10.691 2°43.207 12.3476 3.899708 33.53391 -3.020363
2011-04-21 08:23:56 51°10.681 2°43.181 12.3505 3.900122 33.535576 -3.020363
2011-04-21 08:24:01 51°10.672 2°43.154 12.3518 3.900019 33.532277 -3.020363
2011-04-21 08:24:07 51°10.66 2°43.122 12.3533 3.900019 33.532277 -3.020363
2011-04-21 08:24:12 51°10.651 2°43.095 12.352 3.898568 33.514531 -3.020363
2011-04-21 08:24:16 51°10.644 2°43.073 12.3543 3.899811 33.523374 -3.020363
2011-04-21 08:24:21 51°10.637 2°43.045 12.3524 3.897532 33.499227 -3.020363
2011-04-21 08:24:26 51°10.63 2°43.016 12.354 3.899293 33.513801 -3.020363
2011-04-21 08:24:32 51°10.624 2°42.981 12.3497 3.900536 33.524178 -3.020363
2011-04-21 08:24:36 51°10.62 2°42.957 12.3509 3.900536 33.524178 -3.020363
2011-04-21 08:24:41 51°10.615 2°42.927 12.3506 3.900018 33.51691 -3.020363
2011-04-21 08:24:46 51°10.611 2°42.898 12.3451 3.901883 33.533243 -3.020363
2011-04-21 08:24:52 51°10.605 2°42.862 12.3425 3.900536 33.518034 -3.020363
2011-04-21 08:24:56 51°10.602 2°42.838 12.3355 3.901987 33.531931 -3.020363
2011-04-21 08:25:01 51°10.597 2°42.808 12.331 3.902505 33.536126 -3.020363
2011-04-21 08:25:06 51°10.592 2°42.779 12.3315 3.902505 33.536126 -3.020363
2011-04-21 08:25:12 51°10.586 2°42.743 12.3276 3.901469 33.527736 -3.020363
2011-04-21 08:25:16 51°10.581 2°42.719 12.3263 3.900951 33.524309 -3.020363
2011-04-21 08:25:21 51°10.576 2°42.69 12.3278 3.900018 33.517678 -3.020363
2011-04-21 08:25:26 51°10.57 2°42.66 12.3227 3.901987 33.539615 -3.020363
2011-04-21 08:25:32 51°10.563 2°42.624 12.3239 3.903334 33.556368 -3.020363
2011-04-21 08:25:36 51°10.558 2°42.601 12.3244 3.903334 33.556368 -3.020363
2011-04-21 08:25:41 51°10.552 2°42.571 12.3229 3.903023 33.557234 -3.020363
2011-04-21 08:25:46 51°10.546 2°42.542 12.3246 3.900744 33.539229 -3.020363
2011-04-21 08:25:52 51°10.539 2°42.506 12.3266 3.904163 33.573547 -3.020363
2011-04-21 08:25:56 51°10.534 2°42.483 12.3206 3.901158 33.546278 -3.020363
2011-04-21 08:26:01 51°10.528 2°42.453 12.3212 3.904163 33.577396 -3.020363
2011-04-21 08:26:06 51°10.522 2°42.424 12.3179 3.904163 33.577396 -3.020363
2011-04-21 08:26:12 51°10.515 2°42.388 12.3216 3.902298 33.560283 -3.020363
2011-04-21 08:26:16 51°10.51 2°42.364 12.3221 3.904267 33.579159 -3.020363
2011-04-21 08:26:21 51°10.505 2°42.335 12.3208 3.903127 33.568231 -3.020363
2011-04-21 08:26:26 51°10.499 2°42.305 12.3147 3.901573 33.553329 -3.020363
2011-04-21 08:26:31 51°10.493 2°42.275 12.3122 3.90406 33.577942 -3.020363
2011-04-21 08:26:36 51°10.487 2°42.245 12.31 3.90406 33.577942 -3.020363
2011-04-21 08:26:41 51°10.481 2°42.216 12.3105 3.90437 33.582463 -3.020363
2011-04-21 08:26:46 51°10.475 2°42.186 12.3094 3.902505 33.565348 -3.020363
2011-04-21 08:26:52 51°10.467 2°42.151 12.3084 3.903231 33.572303 -3.020363
2011-04-21 08:26:56 51°10.46 2°42.128 12.3071 3.902609 33.566342 -3.020363
2011-04-21 08:27:02 51°10.45 2°42.095 12.3058 3.902195 33.565446 -3.020363
2011-04-21 08:27:07 51°10.44 2°42.068 12.3016 3.902195 33.565446 -3.020363
2011-04-21 08:27:12 51°10.43 2°42.041 12.303 3.900226 33.548876 -3.020363
2011-04-21 08:27:16 51°10.422 2°42.02 12.3004 3.90406 33.587955 -3.020363
2011-04-21 08:27:21 51°10.412 2°41.994 12.3048 3.903542 33.585297 -3.020363
2011-04-21 08:27:26 51°10.401 2°41.968 12.3082 3.903335 33.58485 -3.020363
2011-04-21 08:27:32 51°10.389 2°41.937 12.3109 3.902609 33.580203 -3.020363
2011-04-21 08:27:36 51°10.38 2°41.917 12.3137 3.902609 33.580203 -3.020363
2011-04-21 08:27:41 51°10.37 2°41.891 12.3049 3.903645 33.592455 -3.020363
2011-04-21 08:27:46 51°10.359 2°41.865 12.3079 3.90292 33.587038 -3.020363
2011-04-21 08:27:52 51°10.348 2°41.833 12.3073 3.902817 33.586815 -3.020363
2011-04-21 08:27:56 51°10.34 2°41.812 12.3064 3.903024 33.588803 -3.020363
2011-04-21 08:28:01 51°10.332 2°41.784 12.3038 3.90292 33.586267 -3.020363
2011-04-21 08:28:06 51°10.325 2°41.756 12.3026 3.90292 33.586267 -3.020363
2011-04-21 08:28:12 51°10.317 2°41.721 12.3002 3.902713 33.581968 -3.020363
2011-04-21 08:28:16 51°10.313 2°41.697 12.2961 3.909966 33.650788 -3.020363
2011-04-21 08:28:21 51°10.308 2°41.668 12.2915 3.909966 33.650016 -3.020363
2011-04-21 08:28:26 51°10.304 2°41.638 12.2865 3.910173 33.651232 -3.020363
2011-04-21 08:28:31 51°10.3 2°41.608 12.2844 3.910173 33.651232 -3.020363
2011-04-21 08:28:36 51°10.296 2°41.578 12.2807 3.910173 33.651232 -3.020363
2011-04-21 08:28:41 51°10.293 2°41.548 12.28 3.910277 33.652999 -3.020363
2011-04-21 08:28:46 51°10.29 2°41.517 12.2726 3.91007 33.651782 -3.020363
2011-04-21 08:28:52 51°10.286 2°41.481 12.2696 3.909862 33.65211 -3.020363
2011-04-21 08:28:56 51°10.284 2°41.456 12.2661 3.909759 33.654977 -3.020363
2011-04-21 08:29:02 51°10.279 2°41.42 12.2679 3.909655 33.657844 -3.020363
2011-04-21 08:29:06 51°10.275 2°41.396 12.2658 3.909655 33.657844 -3.020363
2011-04-21 08:29:12 51°10.269 2°41.361 12.2603 3.909344 33.659496 -3.020363
2011-04-21 08:29:16 51°10.263 2°41.337 12.261 3.909241 33.661592 -3.020363
2011-04-21 08:29:22 51°10.254 2°41.303 12.2575 3.909034 33.663466 -3.020363
2011-04-21 08:29:26 51°10.248 2°41.28 12.2619 3.908827 33.667661 -3.020363
2011-04-21 08:29:32 51°10.239 2°41.246 12.2603 3.908619 33.668763 -3.020363
2011-04-21 08:29:36 51°10.232 2°41.224 12.2569 3.908619 33.668763 -3.020363
2011-04-21 08:29:41 51°10.224 2°41.196 12.2568 3.908516 33.671635 -3.020363
2011-04-21 08:29:46 51°10.215 2°41.168 12.2531 3.908516 33.674729 -3.020363
2011-04-21 08:29:52 51°10.205 2°41.135 12.2547 3.908516 33.67705 -3.020363
2011-04-21 08:29:56 51°10.199 2°41.112 12.2579 3.908723 33.680589 -3.020363
2011-04-21 08:30:01 51°10.191 2°41.084 12.2528 3.90893 33.683354 -3.020363
2011-04-21 08:30:06 51°10.183 2°41.055 12.259 3.90893 33.683354 -3.020363
2011-04-21 08:30:12 51°10.175 2°41.021 12.2582 3.909138 33.685345 -3.020363
2011-04-21 08:30:16 51°10.169 2°40.997 12.2545 3.909345 33.688884 -3.020363
2011-04-21 08:30:21 51°10.164 2°40.967 12.2528 3.909863 33.694637 -3.020363
2011-04-21 08:30:26 51°10.159 2°40.938 12.2458 3.909967 33.696407 -3.020363
2011-04-21 08:30:31 51°10.154 2°40.907 12.2481 3.910277 33.700168 -3.020363
2011-04-21 08:30:36 51°10.15 2°40.877 12.2397 3.910277 33.700168 -3.020363
2011-04-21 08:30:41 51°10.147 2°40.846 12.238 3.910485 33.700611 -3.020363
2011-04-21 08:30:46 51°10.143 2°40.816 12.2401 3.910795 33.702823 -3.020363
2011-04-21 08:30:52 51°10.138 2°40.779 12.2361 3.910899 33.703819 -3.020363
2011-04-21 08:30:56 51°10.135 2°40.755 12.238 3.911003 33.706364 -3.020363
2011-04-21 08:31:01 51°10.131 2°40.725 12.2367 3.911106 33.708909 -3.020363
2011-04-21 08:31:07 51°10.126 2°40.688 12.2382 3.911106 33.708909 -3.020363
2011-04-21 08:31:12 51°10.122 2°40.657 12.2383 3.910485 33.707582 -3.020363
2011-04-21 08:31:16 51°10.119 2°40.633 12.2366 3.909034 33.696738 -3.020363
2011-04-21 08:31:21 51°10.113 2°40.603 12.2401 3.909241 33.701054 -3.020363
2011-04-21 08:31:26 51°10.108 2°40.574 12.238 3.908827 33.699394 -3.020363
2011-04-21 08:31:32 51°10.1 2°40.538 12.2425 3.910588 33.717103 -3.020363
2011-04-21 08:31:36 51°10.094 2°40.515 12.2418 3.910588 33.717103 -3.020363
2011-04-21 08:31:41 51°10.086 2°40.486 12.2471 3.910692 33.718874 -3.020363
2011-04-21 08:31:47 51°10.077 2°40.452 12.2467 3.910588 33.718653 -3.020363
2011-04-21 08:31:52 51°10.07 2°40.423 12.2466 3.910588 33.720204 -3.020363
2011-04-21 08:31:56 51°10.063 2°40.401 12.2495 3.910485 33.719207 -3.020363
2011-04-21 08:32:00 51°10.057 2°40.378 12.2532 3.910692 33.720425 -3.020363
2011-04-21 08:32:06 51°10.047 2°40.344 12.2567 3.910692 33.720425 -3.020363
2011-04-21 08:32:12 51°10.037 2°40.31 12.2596 3.910692 33.719649 -3.020363
2011-04-21 08:32:16 51°10.031 2°40.287 12.2654 3.910796 33.719095 -3.020363
2011-04-21 08:32:21 51°10.023 2°40.259 12.271 3.910899 33.718541 -3.020363
2011-04-21 08:32:26 51°10.017 2°40.23 12.275 3.911003 33.717986 -3.020363
2011-04-21 08:32:32 51°10.009 2°40.194 12.2778 3.910692 33.712673 -3.020363
2011-04-21 08:32:36 51°10.005 2°40.17 12.2848 3.910692 33.712673 -3.020363
2011-04-21 08:32:41 51°9.999 2°40.14 12.2886 3.910796 33.711344 -3.020363
2011-04-21 08:32:46 51°9.995 2°40.11 12.2921 3.911003 33.710237 -3.020363
2011-04-21 08:32:52 51°9.99 2°40.074 12.298 3.91121 33.70758 -3.020363
2011-04-21 08:32:56 51°9.987 2°40.049 12.3031 3.911417 33.703376 -3.020363
2011-04-21 08:33:01 51°9.983 2°40.019 12.308 3.911624 33.70227 -3.020363
2011-04-21 08:33:06 51°9.979 2°39.988 12.3104 3.911624 33.70227 -3.020363
2011-04-21 08:33:12 51°9.975 2°39.951 12.3144 3.911935 33.699838 -3.020363
2011-04-21 08:33:16 51°9.972 2°39.926 12.3166 3.912349 33.699949 -3.020363
2011-04-21 08:33:21 51°9.969 2°39.896 12.3181 3.912764 33.698513 -3.020363
2011-04-21 08:33:26 51°9.965 2°39.865 12.3184 3.913075 33.696856 -3.020363
2011-04-21 08:33:32 51°9.961 2°39.828 12.3197 3.913385 33.695199 -3.020363
2011-04-21 08:33:36 51°9.957 2°39.804 12.322 3.913385 33.695199 -3.020363
2011-04-21 08:33:41 51°9.952 2°39.773 12.3224 3.913489 33.691554 -3.020363
2011-04-21 08:33:46 51°9.947 2°39.743 12.3239 3.914111 33.693656 -3.020363
2011-04-21 08:33:52 51°9.94 2°39.708 12.3246 3.914629 33.694763 -3.020363
2011-04-21 08:33:56 51°9.934 2°39.684 12.3247 3.91525 33.699184 -3.020363
2011-04-21 08:34:00 51°9.929 2°39.661 12.3238 3.915561 33.699848 -3.020363
2011-04-21 08:34:07 51°9.919 2°39.62 12.3245 3.915561 33.699848 -3.020363
2011-04-21 08:34:12 51°9.911 2°39.591 12.3217 3.915768 33.701064 -3.020363
2011-04-21 08:34:16 51°9.905 2°39.568 12.3224 3.915561 33.697529 -3.020363
2011-04-21 08:34:21 51°9.897 2°39.539 12.321 3.916183 33.701949 -3.020363
2011-04-21 08:34:26 51°9.89 2°39.51 12.3236 3.916494 33.704159 -3.020363
2011-04-21 08:34:32 51°9.88 2°39.476 12.3267 3.917012 33.708357 -3.020363
2011-04-21 08:34:36 51°9.874 2°39.453 12.3281 3.917012 33.708357 -3.020363
2011-04-21 08:34:41 51°9.866 2°39.424 12.3312 3.91753 33.713329 -3.020363
2011-04-21 08:34:46 51°9.859 2°39.395 12.3324 3.917841 33.716312 -3.020363
2011-04-21 08:34:52 51°9.851 2°39.36 12.3344 3.917633 33.715096 -3.020363
2011-04-21 08:34:56 51°9.845 2°39.336 12.3384 3.918359 33.721284 -3.020363
2011-04-21 08:35:01 51°9.839 2°39.306 12.3406 3.919498 33.731448 -3.020363
2011-04-21 08:35:06 51°9.834 2°39.276 12.3437 3.919498 33.731448 -3.020363
2011-04-21 08:35:12 51°9.828 2°39.24 12.3481 3.919395 33.728907 -3.020363
2011-04-21 08:35:16 51°9.824 2°39.216 12.3503 3.919602 33.728575 -3.020363
2011-04-21 08:35:21 51°9.819 2°39.185 12.3539 3.919395 33.723493 -3.020363
2011-04-21 08:35:26 51°9.815 2°39.154 12.3562 3.91898 33.717196 -3.020363
2011-04-21 08:35:31 51°9.812 2°39.123 12.359 3.919705 33.721063 -3.020363
2011-04-21 08:35:36 51°9.808 2°39.092 12.3626 3.919705 33.721063 -3.020363
2011-04-21 08:35:41 51°9.804 2°39.061 12.3638 3.919809 33.719737 -3.020363
2011-04-21 08:35:46 51°9.8 2°39.031 12.3687 3.919809 33.715873 -3.020363
2011-04-21 08:35:52 51°9.796 2°38.997 12.3693 3.919705 33.712561 -3.020363
2011-04-21 08:35:56 51°9.793 2°38.975 12.372 3.919809 33.710464 -3.020363
2011-04-21 08:36:02 51°9.789 2°38.944 12.3754 3.919705 33.70638 -3.020363
2011-04-21 08:36:07 51°9.786 2°38.921 12.38 3.919705 33.70638 -3.020363
2011-04-21 08:36:12 51°9.782 2°38.899 12.3818 3.918255 33.689383 -3.020363
2011-04-21 08:36:16 51°9.778 2°38.883 12.3836 3.91898 33.693249 -3.020363
2011-04-21 08:36:21 51°9.774 2°38.864 12.3871 3.919291 33.693913 -3.020363
2011-04-21 08:36:26 51°9.769 2°38.847 12.3927 3.919083 33.689611 -3.020363
2011-04-21 08:36:32 51°9.763 2°38.829 12.3949 3.919291 33.689283 -3.020363
2011-04-21 08:36:36 51°9.759 2°38.817 12.3981 3.919291 33.689283 -3.020363
2011-04-21 08:36:41 51°9.754 2°38.804 12.4014 3.919291 33.686968 -3.020363
2011-04-21 08:36:46 51°9.749 2°38.791 12.4041 3.918151 33.67373 -3.020363
2011-04-21 08:36:52 51°9.742 2°38.778 12.4081 3.919291 33.681568 -3.020363
2011-04-21 08:36:56 51°9.738 2°38.769 12.4124 3.91929 33.678483 -3.020363
2011-04-21 08:37:01 51°9.734 2°38.759 12.4166 3.919187 33.674407 -3.020363
2011-04-21 08:37:06 51°9.729 2°38.749 12.4213 3.919187 33.674407 -3.020363
2011-04-21 08:37:12 51°9.723 2°38.738 12.4258 3.919498 33.674301 -3.020363
2011-04-21 08:37:16 51°9.719 2°38.731 12.4291 3.916182 33.639457 -3.020363
2011-04-21 08:37:21 51°9.715 2°38.723 12.4326 3.918565 33.658433 -3.020363
2011-04-21 08:37:26 51°9.71 2°38.715 12.4352 3.920119 33.669467 -3.020363
2011-04-21 08:37:31 51°9.706 2°38.707 12.4384 3.920223 33.665837 -3.020363
2011-04-21 08:37:36 51°9.702 2°38.7 12.4418 3.920223 33.665837 -3.020363
2011-04-21 08:37:41 51°9.697 2°38.693 12.4457 3.91929 33.653058 -3.020363
2011-04-21 08:37:46 51°9.693 2°38.687 12.4477 3.920637 33.662105 -3.020363
2011-04-21 08:37:52 51°9.688 2°38.679 12.4527 3.920223 33.653518 -3.020363
2011-04-21 08:37:56 51°9.685 2°38.674 12.4561 3.921259 33.660358 -3.020363
2011-04-21 08:38:01 51°9.681 2°38.668 12.4621 3.921362 33.657502 -3.020363
2011-04-21 08:38:07 51°9.676 2°38.661 12.4657 3.921362 33.657502 -3.020363
2011-04-21 08:38:12 51°9.672 2°38.656 12.4688 3.921155 33.652441 -3.020363
2011-04-21 08:38:16 51°9.669 2°38.652 12.4753 3.92188 33.655535 -3.020363
2011-04-21 08:38:21 51°9.666 2°38.646 12.479 3.92074 33.641552 -3.020363
2011-04-21 08:38:26 51°9.662 2°38.641 12.4839 3.921362 33.643656 -3.020363
2011-04-21 08:38:32 51°9.658 2°38.636 12.4894 3.920948 33.635079 -3.020363
2011-04-21 08:38:36 51°9.655 2°38.632 12.4946 3.920948 33.635079 -3.020363
2011-04-21 08:38:41 51°9.651 2°38.627 12.5035 3.922191 33.643129 -3.020363
2011-04-21 08:38:47 51°9.647 2°38.62 12.5085 3.921258 33.6296 -3.020363
2011-04-21 08:38:52 51°9.643 2°38.615 12.5149 3.923434 33.645798 -3.020363
2011-04-21 08:38:56 51°9.64 2°38.611 12.5226 3.922398 33.631281 -3.020363
2011-04-21 08:39:00 51°9.636 2°38.607 12.5282 3.923538 33.63757 -3.020363
2011-04-21 08:39:06 51°9.631 2°38.601 12.5334 3.923538 33.63757 -3.020363
2011-04-21 08:39:12 51°9.627 2°38.594 12.5381 3.922398 33.6213 -3.020363
2011-04-21 08:39:16 51°9.623 2°38.589 12.5438 3.923434 33.625064 -3.020363
2011-04-21 08:39:21 51°9.619 2°38.583 12.5475 3.92447 33.629594 -3.020363
2011-04-21 08:39:26 51°9.615 2°38.577 12.5517 3.925092 33.629395 -3.020363
2011-04-21 08:39:32 51°9.611 2°38.569 12.5567 3.924677 33.618533 -3.020363
2011-04-21 08:39:36 51°9.608 2°38.564 12.5614 3.924677 33.618533 -3.020363
2011-04-21 08:39:41 51°9.604 2°38.557 12.5667 3.927267 33.636373 -3.020363
2011-04-21 08:39:46 51°9.6 2°38.55 12.5713 3.927889 33.636175 -3.020363
2011-04-21 08:39:52 51°9.596 2°38.541 12.576 3.923019 33.584313 -3.020363
2011-04-21 08:39:56 51°9.593 2°38.536 12.5803 3.924988 33.597747 -3.020363
2011-04-21 08:40:01 51°9.589 2°38.529 12.5853 3.928821 33.629746 -3.020363
2011-04-21 08:40:06 51°9.586 2°38.522 12.5892 3.928821 33.629746 -3.020363
2011-04-21 08:40:12 51°9.582 2°38.513 12.5926 3.928407 33.620427 -3.020363
2011-04-21 08:40:16 51°9.579 2°38.507 12.5968 3.930168 33.631875 -3.020363
2011-04-21 08:40:21 51°9.576 2°38.499 12.602 3.931101 33.635412 -3.020363
2011-04-21 08:40:26 51°9.573 2°38.492 12.6066 3.931826 33.63697 -3.020363
2011-04-21 08:40:32 51°9.569 2°38.483 12.6101 3.932551 33.639294 -3.020363
2011-04-21 08:40:36 51°9.566 2°38.477 12.6135 3.932551 33.639294 -3.020363
2011-04-21 08:40:41 51°9.563 2°38.469 12.6184 3.931204 33.621852 -3.020363
2011-04-21 08:40:47 51°9.56 2°38.46 12.6222 3.933484 33.639 -3.020363
2011-04-21 08:40:52 51°9.557 2°38.453 12.6244 3.933276 33.632431 -3.020363
2011-04-21 08:40:56 51°9.555 2°38.446 12.628 3.934727 33.640906 -3.020363
2011-04-21 08:41:00 51°9.552 2°38.44 12.6324 3.931308 33.604482 -3.020363
2011-04-21 08:41:07 51°9.549 2°38.429 12.6334 3.931308 33.604482 -3.020363
2011-04-21 08:41:12 51°9.546 2°38.421 12.635 3.935867 33.643354 -3.020363
2011-04-21 08:41:16 51°9.544 2°38.415 12.6387 3.930064 33.583462 -3.020363
2011-04-21 08:41:21 51°9.541 2°38.407 12.6407 3.931411 33.591715 -3.020363
2011-04-21 08:41:26 51°9.539 2°38.399 12.6424 3.933276 33.605666 -3.020363
2011-04-21 08:41:32 51°9.536 2°38.389 12.6463 3.919391 33.469606 -3.020363
2011-04-21 08:41:36 51°9.534 2°38.382 12.6474 3.919391 33.469606 -3.020363
2011-04-21 08:41:41 51°9.532 2°38.374 12.6497 3.934416 33.60965 -3.020363
2011-04-21 08:41:46 51°9.529 2°38.366 12.6514 3.937317 33.634997 -3.020363
2011-04-21 08:41:52 51°9.527 2°38.357 12.6546 3.937421 33.632927 -3.020363
2011-04-21 08:41:56 51°9.525 2°38.35 12.6584 3.936177 33.618026 -3.020363
2011-04-21 08:42:01 51°9.523 2°38.342 12.6612 3.939182 33.643591 -3.020363
2011-04-21 08:42:06 51°9.52 2°38.334 12.6604 3.939182 33.643591 -3.020363
2011-04-21 08:42:12 51°9.518 2°38.324 12.6625 3.940011 33.649194 -3.020363
2011-04-21 08:42:16 51°9.516 2°38.317 12.663 3.940322 33.649861 -3.020363
2011-04-21 08:42:21 51°9.514 2°38.309 12.6664 3.939907 33.64362 -3.020363
2011-04-21 08:42:26 51°9.512 2°38.301 12.6684 3.940736 33.648457 -3.020363
2011-04-21 08:42:32 51°9.509 2°38.291 12.6697 3.941047 33.64836 -3.020363
2011-04-21 08:42:36 51°9.508 2°38.284 12.6713 3.941047 33.64836 -3.020363
2011-04-21 08:42:41 51°9.506 2°38.276 12.6713 3.941151 33.647055 -3.020363
2011-04-21 08:42:46 51°9.504 2°38.268 12.6729 3.941254 33.646513 -3.020363
2011-04-21 08:42:52 51°9.502 2°38.258 12.6738 3.941669 33.648167 -3.020363
2011-04-21 08:42:56 51°9.5 2°38.251 12.6753 3.939182 33.622965 -3.020363
2011-04-21 08:43:00 51°9.499 2°38.244 12.6764 3.941565 33.643361 -3.020363
2011-04-21 08:43:07 51°9.497 2°38.232 12.6791 3.941565 33.643361 -3.020363
2011-04-21 08:43:12 51°9.495 2°38.224 12.6803 3.942809 33.652906 -3.020363
2011-04-21 08:43:16 51°9.494 2°38.217 12.6823 3.943534 33.659046 -3.020363
2011-04-21 08:43:21 51°9.492 2°38.209 12.6839 3.94343 33.657296 -3.020363
2011-04-21 08:43:26 51°9.491 2°38.2 12.6853 3.943119 33.652045 -3.020363
2011-04-21 08:43:32 51°9.489 2°38.19 12.6848 3.943534 33.654462 -3.020363
2011-04-21 08:43:36 51°9.488 2°38.183 12.6872 3.943534 33.654462 -3.020363
2011-04-21 08:43:41 51°9.486 2°38.175 12.6884 3.943845 33.655893 -3.020363
2011-04-21 08:43:46 51°9.485 2°38.166 12.6873 3.943534 33.650643 -3.020363
2011-04-21 08:43:52 51°9.484 2°38.156 12.6873 3.943119 33.645171 -3.020363
2011-04-21 08:43:56 51°9.483 2°38.149 12.688 3.944881 33.660408 -3.020363
2011-04-21 08:44:01 51°9.482 2°38.141 12.6892 3.944155 33.651978 -3.020363
2011-04-21 08:44:06 51°9.48 2°38.132 12.6894 3.944155 33.651978 -3.020363
2011-04-21 08:44:12 51°9.479 2°38.122 12.6899 3.945399 33.662283 -3.020363
2011-04-21 08:44:16 51°9.478 2°38.115 12.6916 3.94457 33.653631 -3.020363
2011-04-21 08:44:21 51°9.477 2°38.107 12.6893 3.945192 33.658783 -3.020363
2011-04-21 08:44:26 51°9.477 2°38.098 12.6905 3.943948 33.646188 -3.020363
2011-04-21 08:44:32 51°9.475 2°38.088 12.6899 3.944777 33.654076 -3.020363
2011-04-21 08:44:36 51°9.475 2°38.081 12.6901 3.944777 33.654076 -3.020363
2011-04-21 08:44:41 51°9.474 2°38.072 12.691 3.945192 33.657256 -3.020363
2011-04-21 08:44:47 51°9.473 2°38.062 12.6919 3.944259 33.647619 -3.020363
2011-04-21 08:44:52 51°9.472 2°38.054 12.692 3.950476 33.706016 -3.020363
2011-04-21 08:44:56 51°9.472 2°38.047 12.6936 3.95058 33.706237 -3.020363
2011-04-21 08:45:01 51°9.471 2°38.038 12.6942 3.950787 33.708209 -3.020363
2011-04-21 08:45:07 51°9.471 2°38.028 12.6948 3.950787 33.708209 -3.020363
2011-04-21 08:45:12 51°9.47 2°38.02 12.6936 3.950994 33.710182 -3.020363
2011-04-21 08:45:16 51°9.47 2°38.013 12.6938 3.951202 33.711389 -3.020363
2011-04-21 08:45:21 51°9.469 2°38.005 12.6943 3.951409 33.712596 -3.020363
2011-04-21 08:45:26 51°9.469 2°37.996 12.6942 3.951409 33.711832 -3.020363
2011-04-21 08:45:32 51°9.468 2°37.986 12.6963 3.95172 33.71479 -3.020363
2011-04-21 08:45:36 51°9.468 2°37.98 12.6937 3.95172 33.71479 -3.020363
2011-04-21 08:45:41 51°9.467 2°37.971 12.6938 3.951823 33.715011 -3.020363
2011-04-21 08:45:46 51°9.467 2°37.962 12.6956 3.951927 33.715997 -3.020363
2011-04-21 08:45:52 51°9.466 2°37.952 12.6957 3.952134 33.717205 -3.020363
2011-04-21 08:45:56 51°9.466 2°37.946 12.6995 3.952134 33.717205 -3.020363
2011-04-21 08:46:02 51°9.465 2°37.935 12.6949 3.952342 33.719177 -3.020363
2011-04-21 08:46:06 51°9.465 2°37.929 12.6939 3.952342 33.719177 -3.020363
2011-04-21 08:46:11 51°9.464 2°37.92 12.6949 3.952549 33.721149 -3.020363
2011-04-21 08:46:16 51°9.464 2°37.912 12.6955 3.952652 33.72137 -3.020363
2011-04-21 08:46:21 51°9.463 2°37.903 12.697 3.952652 33.72137 -3.020363
2011-04-21 08:46:26 51°9.462 2°37.895 12.694 3.95286 33.722577 -3.020363
2011-04-21 08:46:32 51°9.462 2°37.884 12.695 3.953067 33.723784 -3.020363
2011-04-21 08:46:36 51°9.461 2°37.877 12.6941 3.953067 33.723784 -3.020363
2011-04-21 08:46:41 51°9.46 2°37.869 12.6953 3.953067 33.724549 -3.020363
2011-04-21 08:46:46 51°9.46 2°37.86 12.6949 3.953378 33.726742 -3.020363
2011-04-21 08:46:52 51°9.459 2°37.85 12.6956 3.953481 33.727728 -3.020363
2011-04-21 08:46:56 51°9.458 2°37.843 12.6963 3.953585 33.728715 -3.020363
2011-04-21 08:47:01 51°9.458 2°37.835 12.697 3.953689 33.730466 -3.020363
2011-04-21 08:47:06 51°9.457 2°37.826 12.7001 3.953689 33.730466 -3.020363
2011-04-21 08:47:12 51°9.456 2°37.816 12.7002 3.953896 33.732438 -3.020363
2011-04-21 08:47:16 51°9.455 2°37.809 12.6963 3.953999 33.733424 -3.020363
2011-04-21 08:47:21 51°9.454 2°37.8 12.6978 3.954207 33.734631 -3.020363
2011-04-21 08:47:26 51°9.453 2°37.792 12.6967 3.95431 33.735617 -3.020363
2011-04-21 08:47:32 51°9.452 2°37.782 12.6976 3.954414 33.735838 -3.020363
2011-04-21 08:47:36 51°9.451 2°37.775 12.699 3.954414 33.735838 -3.020363
2011-04-21 08:47:41 51°9.451 2°37.767 12.6967 3.954518 33.736059 -3.020363
2011-04-21 08:47:47 51°9.45 2°37.756 12.6979 3.954621 33.73628 -3.020363
2011-04-21 08:47:52 51°9.448 2°37.748 12.6966 3.954725 33.737266 -3.020363
2011-04-21 08:47:56 51°9.448 2°37.741 12.698 3.954932 33.739238 -3.020363
2011-04-21 08:48:01 51°9.447 2°37.732 12.698 3.955036 33.740224 -3.020363
2011-04-21 08:48:06 51°9.446 2°37.724 12.6985 3.955036 33.740224 -3.020363
2011-04-21 08:48:11 51°9.444 2°37.716 12.6999 3.955243 33.742196 -3.020363
2011-04-21 08:48:16 51°9.443 2°37.707 12.7 3.955347 33.742417 -3.020363
2011-04-21 08:48:21 51°9.442 2°37.698 12.6999 3.95545 33.743403 -3.020363
2011-04-21 08:48:26 51°9.441 2°37.69 12.699 3.955554 33.745154 -3.020363
2011-04-21 08:48:31 51°9.44 2°37.682 12.6981 3.955657 33.74614 -3.020363
2011-04-21 08:48:36 51°9.439 2°37.673 12.6999 3.955657 33.74614 -3.020363
2011-04-21 08:48:41 51°9.438 2°37.665 12.7007 3.955657 33.745375 -3.020363
2011-04-21 08:48:46 51°9.436 2°37.656 12.7002 3.955657 33.745375 -3.020363
2011-04-21 08:48:51 51°9.435 2°37.648 12.6996 3.955968 33.746802 -3.020363
2011-04-21 08:48:56 51°9.434 2°37.639 12.6985 3.955968 33.746802 -3.020363
2011-04-21 08:49:01 51°9.433 2°37.631 12.6974 3.956279 33.750526 -3.020363
2011-04-21 08:49:07 51°9.431 2°37.621 12.6979 3.956279 33.750526 -3.020363
2011-04-21 08:49:12 51°9.43 2°37.612 12.6961 3.956383 33.751512 -3.020363
2011-04-21 08:49:16 51°9.429 2°37.605 12.6985 3.956486 33.751732 -3.020363
2011-04-21 08:49:21 51°9.428 2°37.597 12.6972 3.95659 33.752719 -3.020363
2011-04-21 08:49:26 51°9.426 2°37.589 12.6965 3.95659 33.752719 -3.020363
2011-04-21 08:49:32 51°9.425 2°37.578 12.6996 3.956797 33.755456 -3.020363
2011-04-21 08:49:36 51°9.424 2°37.572 12.6962 3.956797 33.755456 -3.020363
2011-04-21 08:49:41 51°9.423 2°37.563 12.696 3.956486 33.752498 -3.020363
2011-04-21 08:49:47 51°9.421 2°37.553 12.6927 3.955761 33.746361 -3.020363
2011-04-21 08:49:52 51°9.42 2°37.544 12.6906 3.957108 33.75918 -3.020363
2011-04-21 08:49:56 51°9.419 2°37.537 12.6916 3.956901 33.757208 -3.020363
2011-04-21 08:50:01 51°9.418 2°37.529 12.6887 3.957005 33.758194 -3.020363
2011-04-21 08:50:06 51°9.417 2°37.52 12.689 3.957005 33.758194 -3.020363
2011-04-21 08:50:12 51°9.416 2°37.51 12.6899 3.957212 33.760166 -3.020363
2011-04-21 08:50:16 51°9.415 2°37.503 12.6875 3.957005 33.75896 -3.020363
2011-04-21 08:50:21 51°9.414 2°37.495 12.6881 3.957005 33.759725 -3.020363
2011-04-21 08:50:26 51°9.413 2°37.486 12.6857 3.957212 33.763229 -3.020363
2011-04-21 08:50:32 51°9.412 2°37.476 12.6856 3.957419 33.765968 -3.020363
2011-04-21 08:50:36 51°9.411 2°37.469 12.685 3.957419 33.765968 -3.020363
2011-04-21 08:50:41 51°9.41 2°37.46 12.6844 3.956797 33.760816 -3.020363
2011-04-21 08:50:46 51°9.409 2°37.452 12.6845 3.957108 33.764541 -3.020363
2011-04-21 08:50:51 51°9.408 2°37.443 12.6827 3.956901 33.763334 -3.020363
2011-04-21 08:50:56 51°9.407 2°37.435 12.6819 3.957523 33.770018 -3.020363
2011-04-21 08:51:01 51°9.406 2°37.426 12.6814 3.956694 33.762894 -3.020363
2011-04-21 08:51:06 51°9.405 2°37.417 12.6816 3.956694 33.762894 -3.020363
2011-04-21 08:51:11 51°9.404 2°37.409 12.6798 3.957212 33.767825 -3.020363
2011-04-21 08:51:16 51°9.404 2°37.4 12.6767 3.956901 33.765632 -3.020363
2011-04-21 08:51:22 51°9.402 2°37.389 12.6772 3.957626 33.773303 -3.020363
2011-04-21 08:51:26 51°9.402 2°37.383 12.6762 3.957316 33.771877 -3.020363
2011-04-21 08:51:31 51°9.401 2°37.374 12.6799 3.957316 33.772643 -3.020363
2011-04-21 08:51:36 51°9.4 2°37.365 12.6776 3.957316 33.772643 -3.020363
2011-04-21 08:51:41 51°9.399 2°37.356 12.6755 3.955865 33.759599 -3.020363
2011-04-21 08:51:47 51°9.398 2°37.346 12.6765 3.957523 33.776149 -3.020363
2011-04-21 08:51:52 51°9.397 2°37.337 12.6755 3.956694 33.769789 -3.020363
2011-04-21 08:51:56 51°9.397 2°37.33 12.6752 3.956176 33.765623 -3.020363
2011-04-21 08:52:01 51°9.396 2°37.322 12.6761 3.956901 33.773295 -3.020363
2011-04-21 08:52:07 51°9.395 2°37.311 12.6749 3.956901 33.773295 -3.020363
2011-04-21 08:52:12 51°9.395 2°37.302 12.6765 3.954103 33.746659 -3.020363
2011-04-21 08:52:16 51°9.394 2°37.295 12.6774 3.954829 33.75433 -3.020363
2011-04-21 08:52:21 51°9.393 2°37.287 12.6755 3.952756 33.7346 -3.020363
2011-04-21 08:52:26 51°9.393 2°37.278 12.6736 3.954414 33.750384 -3.020363
2011-04-21 08:52:32 51°9.392 2°37.267 12.6738 3.954932 33.756083 -3.020363
2011-04-21 08:52:36 51°9.391 2°37.26 12.6693 3.954932 33.756083 -3.020363
2011-04-21 08:52:41 51°9.391 2°37.252 12.6683 3.955243 33.758276 -3.020363
2011-04-21 08:52:46 51°9.39 2°37.243 12.6707 3.953689 33.743478 -3.020363
2011-04-21 08:52:51 51°9.389 2°37.234 12.6664 3.95773 33.781188 -3.020363
2011-04-21 08:52:56 51°9.389 2°37.225 12.6666 3.954621 33.752357 -3.020363
2011-04-21 08:53:01 51°9.388 2°37.216 12.6663 3.94944 33.703801 -3.020363
2011-04-21 08:53:06 51°9.388 2°37.208 12.6673 3.94944 33.703801 -3.020363
2011-04-21 08:53:11 51°9.387 2°37.199 12.6694 3.957834 33.784475 -3.020363
2011-04-21 08:53:16 51°9.387 2°37.19 12.6673 3.957212 33.780854 -3.020363
2011-04-21 08:53:21 51°9.386 2°37.181 12.6675 3.95659 33.774934 -3.020363
2011-04-21 08:53:26 51°9.386 2°37.173 12.6653 3.95659 33.776467 -3.020363
2011-04-21 08:53:31 51°9.385 2°37.164 12.6663 3.956383 33.776027 -3.020363
2011-04-21 08:53:36 51°9.385 2°37.155 12.6661 3.956383 33.776027 -3.020363
2011-04-21 08:53:41 51°9.384 2°37.146 12.6641 3.955243 33.765939 -3.020363
2011-04-21 08:53:47 51°9.384 2°37.135 12.6653 3.952031 33.734586 -3.020363
2011-04-21 08:53:52 51°9.384 2°37.127 12.6634 3.95628 33.77504 -3.020363
2011-04-21 08:53:56 51°9.383 2°37.12 12.659 3.956487 33.777014 -3.020363
2011-04-21 08:54:01 51°9.383 2°37.111 12.6595 3.954725 33.761005 -3.020363
2011-04-21 08:54:06 51°9.383 2°37.102 12.6572 3.954725 33.761005 -3.020363
2011-04-21 08:54:12 51°9.382 2°37.092 12.6572 3.954 33.754098 -3.020363
2011-04-21 08:54:16 51°9.382 2°37.085 12.6571 3.954622 33.760785 -3.020363
2011-04-21 08:54:21 51°9.381 2°37.076 12.6568 3.951202 33.72899 -3.020363
2011-04-21 08:54:27 51°9.381 2°37.065 12.6567 3.955347 33.769226 -3.020363
2011-04-21 08:54:32 51°9.38 2°37.057 12.6554 3.955451 33.771746 -3.020363
2011-04-21 08:54:36 51°9.379 2°37.05 12.6559 3.955451 33.771746 -3.020363
2011-04-21 08:54:41 51°9.379 2°37.041 12.6553 3.954103 33.760449 -3.020363
2011-04-21 08:54:46 51°9.378 2°37.032 12.6544 3.954103 33.761216 -3.020363
2011-04-21 08:54:52 51°9.377 2°37.022 12.652 3.95172 33.738518 -3.020363
2011-04-21 08:54:56 51°9.376 2°37.015 12.651 3.954104 33.761983 -3.020363
2011-04-21 08:55:01 51°9.375 2°37.006 12.6499 3.955451 33.774813 -3.020363
2011-04-21 08:55:06 51°9.374 2°36.998 12.6526 3.955451 33.774813 -3.020363
2011-04-21 08:55:11 51°9.373 2°36.989 12.655 3.958456 33.803438 -3.020363
2011-04-21 08:55:16 51°9.372 2°36.981 12.6579 3.953689 33.758801 -3.020363
2011-04-21 08:55:21 51°9.371 2°36.972 12.6549 3.954622 33.768451 -3.020363
2011-04-21 08:55:26 51°9.37 2°36.963 12.6624 3.957627 33.796308 -3.020363
2011-04-21 08:55:31 51°9.368 2°36.955 12.6706 3.954829 33.766591 -3.020363
2011-04-21 08:55:36 51°9.367 2°36.947 12.6821 3.954829 33.766591 -3.020363
2011-04-21 08:55:41 51°9.366 2°36.938 12.6975 3.957523 33.789183 -3.020363
2011-04-21 08:55:46 51°9.364 2°36.93 12.706 3.957523 33.786882 -3.020363
2011-04-21 08:55:51 51°9.362 2°36.921 12.7255 3.957938 33.790063 -3.020363
2011-04-21 08:55:56 51°9.361 2°36.913 12.7091 3.959492 33.804866 -3.020363
2011-04-21 08:56:01 51°9.359 2°36.905 12.7063 3.958974 33.798397 -3.020363
2011-04-21 08:56:07 51°9.357 2°36.895 12.7014 3.958974 33.798397 -3.020363
2011-04-21 08:56:12 51°9.355 2°36.887 12.7111 3.957316 33.777241 -3.020363
2011-04-21 08:56:16 51°9.354 2°36.88 12.7184 3.95545 33.751058 -3.020363
2011-04-21 08:56:21 51°9.352 2°36.872 12.7131 3.953792 33.726097 -3.020363
2011-04-21 08:56:27 51°9.35 2°36.862 12.7216 3.952341 33.702358 -3.020363
2011-04-21 08:56:32 51°9.348 2°36.854 12.7231 3.953067 33.704672 -3.020363
2011-04-21 08:56:36 51°9.346 2°36.848 12.7245 3.953067 33.704672 -3.020363
2011-04-21 08:56:41 51°9.344 2°36.84 12.7601 3.952134 33.691984 -3.020363
2011-04-21 08:56:46 51°9.342 2°36.832 12.7257 3.951098 33.679841 -3.020363
2011-04-21 08:56:52 51°9.339 2°36.822 12.7255 3.949854 33.666493 -3.020363
2011-04-21 08:56:56 51°9.337 2°36.816 12.723 3.953377 33.699226 -3.020363
2011-04-21 08:57:01 51°9.335 2°36.808 12.7359 3.952756 33.691787 -3.020363
2011-04-21 08:57:06 51°9.333 2°36.8 12.7522 3.952756 33.691787 -3.020363
2011-04-21 08:57:11 51°9.33 2°36.792 12.7494 3.952445 33.688832 -3.020363
2011-04-21 08:57:16 51°9.328 2°36.785 12.7456 3.953274 33.691369 -3.020363
2011-04-21 08:57:21 51°9.325 2°36.777 12.714 3.952755 33.683391 -3.020363
2011-04-21 08:57:26 51°9.323 2°36.769 12.7329 3.956175 33.715896 -3.020363
2011-04-21 08:57:31 51°9.32 2°36.761 12.7818 3.95576 33.708138 -3.020363
2011-04-21 08:57:36 51°9.318 2°36.754 12.7324 3.95576 33.708138 -3.020363
2011-04-21 08:57:41 51°9.315 2°36.746 12.7023 3.957315 33.716802 -3.020363
2011-04-21 08:57:46 51°9.312 2°36.738 12.7002 3.955449 33.693735 -3.020363
2011-04-21 08:57:51 51°9.309 2°36.731 12.7165 3.957315 33.714512 -3.020363
2011-04-21 08:57:56 51°9.307 2°36.723 12.756 3.958869 33.738452 -3.020363
2011-04-21 08:58:01 51°9.304 2°36.716 12.741 3.957937 33.725002 -3.020363
2011-04-21 08:58:06 51°9.301 2°36.708 12.7036 3.957937 33.725002 -3.020363
2011-04-21 08:58:11 51°9.299 2°36.701 12.715 3.947367 33.62685 -3.020363
2011-04-21 08:58:16 51°9.296 2°36.693 12.7575 3.957937 33.737993 -3.020363
2011-04-21 08:58:20 51°9.294 2°36.687 12.756 3.957522 33.742462 -3.020363
2011-04-21 08:58:27 51°9.29 2°36.676 12.7288 3.955864 33.725165 -3.020363
2011-04-21 08:58:31 51°9.287 2°36.67 12.7555 3.953999 33.698264 -3.020363
2011-04-21 08:58:36 51°9.284 2°36.663 12.7543 3.953999 33.698264 -3.020363
2011-04-21 08:58:40 51°9.282 2°36.657 12.7817 3.960631 33.763612 -3.020363
2011-04-21 08:58:47 51°9.278 2°36.646 12.7605 3.960113 33.764041 -3.020363
2011-04-21 08:58:52 51°9.275 2°36.639 12.7521 3.958351 33.74117 -3.020363
2011-04-21 08:58:56 51°9.273 2°36.632 12.7525 3.959387 33.742613 -3.020363
2011-04-21 08:59:01 51°9.27 2°36.625 12.7277 3.955657 33.702572 -3.020363
2011-04-21 08:59:06 51°9.267 2°36.617 12.7217 3.955657 33.702572 -3.020363
2011-04-21 08:59:12 51°9.264 2°36.608 12.7041 3.959595 33.737705 -3.020363
2011-04-21 08:59:16 51°9.262 2°36.601 12.7003 3.956071 33.696591 -3.020363
2011-04-21 08:59:20 51°9.259 2°36.595 12.7124 3.954206 33.676583 -3.020363
2011-04-21 08:59:26 51°9.256 2°36.586 12.6858 3.959491 33.729846 -3.020363
2011-04-21 08:59:32 51°9.253 2°36.576 12.6873 3.960631 33.748319 -3.020363
2011-04-21 08:59:36 51°9.25 2°36.57 12.6724 3.960631 33.748319 -3.020363